Time,TemperatureF,DewpointF,PressureIn,WindDirection,WindDirectionDegrees,WindSpeedMPH,WindSpeedGustMPH,Humidity,HourlyPrecipIn,Conditions,Clouds,dailyrainin,SoftwareType,DateUTC
2013-01-12 00:01:00,66.0,57.8,29.92,SSE,157,6.0,9.0,75,0.00,,,0.00,WUHU21623XXSP,2013-01-12 06:01:00,
2013-01-12 00:02:00,66.0,57.8,29.92,SSE,157,3.0,9.0,75,0.00,,,0.00,WUHU21623XXSP,2013-01-12 06:02:00,
2013-01-12 00:03:00,66.0,57.8,29.92,SSE,157,3.0,9.0,75,0.00,,,0.00,WUHU21623XXSP,2013-01-12 06:03:00,
2013-01-12 00:06:00,66.0,57.8,29.92,SSE,157,3.0,9.0,75,0.00,,,0.00,WUHU21623XXSP,2013-01-12 06:06:00,
2013-01-12 00:10:00,66.0,57.8,29.92,SSE,157,3.0,3.0,75,0.00,,,0.00,WUHU21623XXSP,2013-01-12 06:10:00,
2013-01-12 00:11:00,66.0,58.2,29.92,SSE,165,5.0,10.0,76,0.00,,,0.00,WUHU21623XXSP,2013-01-12 06:11:00,
2013-01-12 00:15:00,66.0,58.2,29.92,South,180,9.0,10.0,76,0.00,,,0.00,WUHU21623XXSP,2013-01-12 06:15:00,
2013-01-12 00:16:00,66.0,58.2,29.92,SSE,167,8.0,11.0,76,0.00,,,0.00,WUHU21623XXSP,2013-01-12 06:16:00,
2013-01-12 00:20:00,66.0,58.2,29.92,SW,225,8.0,11.0,76,0.00,,,0.00,WUHU21623XXSP,2013-01-12 06:20:00,
2013-01-12 00:21:00,66.0,58.2,29.92,South,179,6.0,11.0,76,0.00,,,0.00,WUHU21623XXSP,2013-01-12 06:21:00,
2013-01-12 00:25:00,66.0,58.2,29.91,South,178,3.0,10.0,76,0.00,,,0.00,WUHU21623XXSP,2013-01-12 06:25:00,
2013-01-12 00:26:00,66.0,58.2,29.92,SSE,157,9.0,9.0,76,0.00,,,0.00,WUHU21623XXSP,2013-01-12 06:26:00,
2013-01-12 00:30:00,66.0,58.2,29.92,South,170,4.0,12.0,76,0.00,,,0.00,WUHU21623XXSP,2013-01-12 06:30:00,
2013-01-12 00:31:00,66.0,58.2,29.92,SSE,168,4.0,12.0,76,0.00,,,0.00,WUHU21623XXSP,2013-01-12 06:31:00,
2013-01-12 00:32:00,66.0,58.2,29.92,South,180,4.0,12.0,76,0.00,,,0.00,WUHU21623XXSP,2013-01-12 06:32:00,
2013-01-12 00:35:00,66.0,58.2,29.92,South,169,5.0,12.0,76,0.00,,,0.00,WUHU21623XXSP,2013-01-12 06:35:00,
2013-01-12 00:36:00,66.0,58.2,29.92,South,169,5.0,12.0,76,0.00,,,0.00,WUHU21623XXSP,2013-01-12 06:36:00,
2013-01-12 00:37:00,66.0,58.2,29.92,SSE,160,4.0,12.0,76,0.00,,,0.00,WUHU21623XXSP,2013-01-12 06:37:00,
2013-01-12 00:40:00,66.0,58.2,29.92,South,180,5.0,9.0,76,0.00,,,0.00,WUHU21623XXSP,2013-01-12 06:40:00,
2013-01-12 00:41:00,66.0,58.2,29.92,South,180,5.0,9.0,76,0.00,,,0.00,WUHU21623XXSP,2013-01-12 06:41:00,
2013-01-12 00:42:00,66.0,58.2,29.91,SE,135,4.0,9.0,76,0.00,,,0.00,WUHU21623XXSP,2013-01-12 06:42:00,
2013-01-12 00:46:00,66.0,58.2,29.91,South,169,5.0,11.0,76,0.00,,,0.00,WUHU21623XXSP,2013-01-12 06:46:00,
2013-01-12 00:47:00,66.0,58.2,29.92,SSE,164,7.0,11.0,76,0.00,,,0.00,WUHU21623XXSP,2013-01-12 06:47:00,
2013-01-12 00:51:00,66.0,58.2,29.92,SSE,160,5.0,11.0,76,0.00,,,0.00,WUHU21623XXSP,2013-01-12 06:51:00,
2013-01-12 00:52:00,66.0,58.2,29.92,South,172,5.0,11.0,76,0.00,,,0.00,WUHU21623XXSP,2013-01-12 06:52:00,
2013-01-12 00:54:00,66.0,58.2,29.92,SSE,157,2.0,8.0,76,0.00,,,0.00,WUHU21623XXSP,2013-01-12 06:54:00,
2013-01-12 00:56:00,66.0,58.2,29.93,South,175,5.0,11.0,76,0.00,,,0.00,WUHU21623XXSP,2013-01-12 06:56:00,
2013-01-12 00:57:00,66.0,58.2,29.93,South,171,5.0,11.0,76,0.00,,,0.00,WUHU21623XXSP,2013-01-12 06:57:00,
2013-01-12 01:01:00,66.0,58.2,29.92,SSE,157,2.0,8.0,76,0.00,,,0.00,WUHU21623XXSP,2013-01-12 07:01:00,
2013-01-12 01:02:00,66.0,58.2,29.92,SSE,157,2.0,8.0,76,0.00,,,0.00,WUHU21623XXSP,2013-01-12 07:02:00,
2013-01-12 01:10:00,66.0,58.2,29.92,SSE,157,4.0,4.0,76,0.00,,,0.00,WUHU21623XXSP,2013-01-12 07:10:00,
2013-01-12 01:15:00,66.0,58.2,29.91,SSE,157,4.0,7.0,76,0.00,,,0.00,WUHU21623XXSP,2013-01-12 07:15:00,
2013-01-12 01:20:00,66.0,58.2,29.91,South,169,4.0,10.0,76,0.00,,,0.00,WUHU21623XXSP,2013-01-12 07:20:00,
2013-01-12 01:25:00,66.0,58.2,29.92,SSE,157,6.0,10.0,76,0.00,,,0.00,WUHU21623XXSP,2013-01-12 07:25:00,
2013-01-12 01:26:00,66.0,58.2,29.92,South,176,4.0,10.0,76,0.00,,,0.00,WUHU21623XXSP,2013-01-12 07:26:00,
2013-01-12 01:30:00,66.0,58.2,29.91,South,180,5.0,9.0,76,0.00,,,0.00,WUHU21623XXSP,2013-01-12 07:30:00,
2013-01-12 01:31:00,66.0,58.2,29.91,SSW,202,6.0,9.0,76,0.00,,,0.00,WUHU21623XXSP,2013-01-12 07:31:00,
2013-01-12 01:35:00,66.0,58.2,29.91,SSE,160,3.0,9.0,76,0.00,,,0.00,WUHU21623XXSP,2013-01-12 07:35:00,
2013-01-12 01:36:00,66.0,58.2,29.91,SSE,157,3.0,9.0,76,0.00,,,0.00,WUHU21623XXSP,2013-01-12 07:36:00,
2013-01-12 01:40:00,66.0,58.2,29.91,SSE,159,5.0,9.0,76,0.00,,,0.00,WUHU21623XXSP,2013-01-12 07:40:00,
2013-01-12 01:41:00,66.0,58.2,29.91,SSE,160,4.0,9.0,76,0.00,,,0.00,WUHU21623XXSP,2013-01-12 07:41:00,
2013-01-12 01:46:00,66.0,58.2,29.91,SSE,151,5.0,9.0,76,0.00,,,0.00,WUHU21623XXSP,2013-01-12 07:46:00,
2013-01-12 01:47:00,66.0,58.2,29.91,South,180,6.0,9.0,76,0.00,,,0.00,WUHU21623XXSP,2013-01-12 07:47:00,
2013-01-12 01:51:00,66.0,58.2,29.91,SSE,157,6.0,9.0,76,0.00,,,0.00,WUHU21623XXSP,2013-01-12 07:51:00,
2013-01-12 01:52:00,66.0,58.2,29.91,SSE,161,4.0,9.0,76,0.00,,,0.00,WUHU21623XXSP,2013-01-12 07:52:00,
2013-01-12 01:54:00,66.0,58.2,29.91,SE,135,5.0,9.0,76,0.00,,,0.00,WUHU21623XXSP,2013-01-12 07:54:00,
2013-01-12 01:56:00,66.0,58.2,29.91,SE,135,9.0,9.0,76,0.00,,,0.00,WUHU21623XXSP,2013-01-12 07:56:00,
2013-01-12 01:57:00,66.0,58.2,29.91,South,180,5.0,9.0,76,0.00,,,0.00,WUHU21623XXSP,2013-01-12 07:57:00,
2013-01-12 02:01:00,66.0,58.2,29.91,SE,135,7.0,9.0,76,0.00,,,0.00,WUHU21623XXSP,2013-01-12 08:01:00,
2013-01-12 02:02:00,66.0,58.2,29.91,SE,135,5.0,9.0,76,0.00,,,0.00,WUHU21623XXSP,2013-01-12 08:02:00,
2013-01-12 02:10:00,66.0,58.2,29.91,SSE,157,6.0,6.0,76,0.00,,,0.00,WUHU21623XXSP,2013-01-12 08:10:00,
2013-01-12 02:15:00,66.0,58.6,29.90,SSE,154,6.0,10.0,77,0.00,,,0.00,WUHU21623XXSP,2013-01-12 08:15:00,
2013-01-12 02:20:00,66.0,58.6,29.91,South,180,7.0,10.0,77,0.00,,,0.00,WUHU21623XXSP,2013-01-12 08:20:00,
2013-01-12 02:25:00,66.0,58.6,29.90,SE,135,5.0,13.0,77,0.00,,,0.00,WUHU21623XXSP,2013-01-12 08:25:00,
2013-01-12 02:30:00,66.0,58.6,29.90,SSE,154,6.0,13.0,77,0.00,,,0.00,WUHU21623XXSP,2013-01-12 08:30:00,
2013-01-12 02:31:00,66.0,58.6,29.90,South,180,11.0,13.0,77,0.00,,,0.00,WUHU21623XXSP,2013-01-12 08:31:00,
2013-01-12 02:35:00,66.0,58.6,29.90,SE,135,6.0,11.0,77,0.00,,,0.00,WUHU21623XXSP,2013-01-12 08:35:00,
2013-01-12 02:36:00,66.0,58.6,29.90,SSE,157,7.0,11.0,77,0.00,,,0.00,WUHU21623XXSP,2013-01-12 08:36:00,
2013-01-12 02:40:00,66.0,58.6,29.90,South,180,5.0,11.0,77,0.00,,,0.00,WUHU21623XXSP,2013-01-12 08:40:00,
2013-01-12 02:41:00,66.0,58.6,29.90,SSE,157,4.0,11.0,77,0.00,,,0.00,WUHU21623XXSP,2013-01-12 08:41:00,
2013-01-12 02:45:00,66.0,58.6,29.90,South,181,5.0,9.0,77,0.00,,,0.00,WUHU21623XXSP,2013-01-12 08:45:00,
2013-01-12 02:46:00,66.0,58.6,29.90,South,171,4.0,9.0,77,0.00,,,0.00,WUHU21623XXSP,2013-01-12 08:46:00,
2013-01-12 02:50:00,66.0,58.6,29.90,SSE,150,6.0,9.0,77,0.00,,,0.00,WUHU21623XXSP,2013-01-12 08:50:00,
2013-01-12 02:51:00,66.0,58.6,29.90,SSE,157,8.0,9.0,77,0.00,,,0.00,WUHU21623XXSP,2013-01-12 08:51:00,
2013-01-12 02:54:00,66.0,59.0,29.90,South,180,6.0,10.0,78,0.00,,,0.00,WUHU21623XXSP,2013-01-12 08:54:00,
2013-01-12 02:55:00,66.0,58.6,29.90,SSE,157,10.0,11.0,77,0.00,,,0.00,WUHU21623XXSP,2013-01-12 08:55:00,
2013-01-12 02:56:00,66.0,58.6,29.90,SSE,163,7.0,11.0,77,0.00,,,0.00,WUHU21623XXSP,2013-01-12 08:56:00,
2013-01-12 02:57:00,66.0,58.6,29.90,SSE,157,9.0,11.0,77,0.00,,,0.00,WUHU21623XXSP,2013-01-12 08:57:00,
2013-01-12 03:01:00,66.0,59.0,29.90,South,180,6.0,11.0,78,0.00,,,0.00,WUHU21623XXSP,2013-01-12 09:01:00,
2013-01-12 03:02:00,66.0,59.0,29.90,South,180,6.0,10.0,78,0.00,,,0.00,WUHU21623XXSP,2013-01-12 09:02:00,
2013-01-12 03:10:00,66.0,58.6,29.90,SE,135,9.0,9.0,77,0.00,,,0.00,WUHU21623XXSP,2013-01-12 09:10:00,
2013-01-12 03:15:00,66.0,59.0,29.89,SSE,157,9.0,11.0,78,0.00,,,0.00,WUHU21623XXSP,2013-01-12 09:15:00,
2013-01-12 03:20:00,66.0,59.0,29.88,SE,135,10.0,13.0,78,0.00,,,0.00,WUHU21623XXSP,2013-01-12 09:20:00,
2013-01-12 03:21:00,66.0,59.0,29.88,SSE,157,11.0,13.0,78,0.00,,,0.00,WUHU21623XXSP,2013-01-12 09:21:00,
2013-01-12 03:25:00,66.0,59.0,29.88,SSE,154,5.0,15.0,78,0.00,,,0.00,WUHU21623XXSP,2013-01-12 09:25:00,
2013-01-12 03:26:00,66.0,59.0,29.88,SE,135,9.0,15.0,78,0.00,,,0.00,WUHU21623XXSP,2013-01-12 09:26:00,
2013-01-12 03:30:00,66.0,59.0,29.87,SSE,157,10.0,15.0,78,0.00,,,0.00,WUHU21623XXSP,2013-01-12 09:30:00,
2013-01-12 03:31:00,66.0,59.0,29.87,South,180,10.0,15.0,78,0.00,,,0.00,WUHU21623XXSP,2013-01-12 09:31:00,
2013-01-12 03:35:00,66.0,59.0,29.88,SSW,202,7.0,13.0,78,0.00,,,0.00,WUHU21623XXSP,2013-01-12 09:35:00,
2013-01-12 03:36:00,66.0,59.0,29.87,South,170,7.0,13.0,78,0.00,,,0.00,WUHU21623XXSP,2013-01-12 09:36:00,
2013-01-12 03:37:00,66.0,59.3,29.87,SE,135,7.0,13.0,79,0.00,,,0.00,WUHU21623XXSP,2013-01-12 09:37:00,
2013-01-12 03:40:00,66.0,59.3,29.88,SSE,158,6.0,13.0,79,0.00,,,0.00,WUHU21623XXSP,2013-01-12 09:40:00,
2013-01-12 03:41:00,66.0,59.3,29.88,SSE,158,6.0,13.0,79,0.00,,,0.00,WUHU21623XXSP,2013-01-12 09:41:00,
2013-01-12 03:42:00,66.0,59.3,29.88,SSE,166,6.0,13.0,79,0.00,,,0.00,WUHU21623XXSP,2013-01-12 09:42:00,
2013-01-12 03:46:00,66.0,59.3,29.88,SSE,154,6.0,12.0,79,0.00,,,0.00,WUHU21623XXSP,2013-01-12 09:46:00,
2013-01-12 03:47:00,66.0,59.3,29.88,SSE,153,5.0,12.0,79,0.00,,,0.00,WUHU21623XXSP,2013-01-12 09:47:00,
2013-01-12 03:51:00,66.0,59.3,29.88,SSE,157,7.0,11.0,79,0.00,,,0.00,WUHU21623XXSP,2013-01-12 09:51:00,
2013-01-12 03:52:00,66.0,59.3,29.88,SE,135,3.0,9.0,79,0.00,,,0.00,WUHU21623XXSP,2013-01-12 09:52:00,
2013-01-12 03:54:00,66.0,59.3,29.89,South,180,8.0,8.0,79,0.00,,,0.00,WUHU21623XXSP,2013-01-12 09:54:00,
2013-01-12 03:56:00,66.2,59.5,29.88,South,183,5.0,8.0,79,0.00,,,0.00,WUHU21623XXSP,2013-01-12 09:56:00,
2013-01-12 03:57:00,66.0,59.3,29.88,South,183,4.0,8.0,79,0.00,,,0.00,WUHU21623XXSP,2013-01-12 09:57:00,
2013-01-12 04:01:00,66.0,59.3,29.89,South,180,8.0,8.0,79,0.00,,,0.00,WUHU21623XXSP,2013-01-12 10:01:00,
2013-01-12 04:02:00,66.0,59.3,29.89,South,180,8.0,8.0,79,0.00,,,0.00,WUHU21623XXSP,2013-01-12 10:02:00,
2013-01-12 04:06:00,66.2,59.5,29.88,South,184,2.0,8.0,79,0.00,,,0.00,WUHU21623XXSP,2013-01-12 10:06:00,
2013-01-12 04:07:00,66.2,59.5,29.88,South,184,2.0,8.0,79,0.00,,,0.00,WUHU21623XXSP,2013-01-12 10:07:00,
2013-01-12 04:11:00,66.2,59.5,29.87,South,180,3.0,5.0,79,0.00,,,0.00,WUHU21623XXSP,2013-01-12 10:11:00,
2013-01-12 04:12:00,66.4,59.7,29.87,SSE,167,2.0,5.0,79,0.00,,,0.00,WUHU21623XXSP,2013-01-12 10:12:00,
2013-01-12 04:13:00,66.4,59.7,29.87,SSE,157,5.0,9.0,79,0.00,,,0.00,WUHU21623XXSP,2013-01-12 10:13:00,
2013-01-12 04:16:00,66.4,59.7,29.87,SSE,167,5.0,9.0,79,0.00,,,0.00,WUHU21623XXSP,2013-01-12 10:16:00,
2013-01-12 04:17:00,66.4,59.7,29.87,South,172,5.0,9.0,79,0.00,,,0.00,WUHU21623XXSP,2013-01-12 10:17:00,
2013-01-12 04:18:00,66.4,59.7,29.87,South,177,4.0,9.0,79,0.00,,,0.00,WUHU21623XXSP,2013-01-12 10:18:00,
2013-01-12 04:22:00,66.4,60.1,29.86,SSE,168,3.0,9.0,80,0.00,,,0.00,WUHU21623XXSP,2013-01-12 10:22:00,
2013-01-12 04:23:00,66.4,60.1,29.86,SSE,157,5.0,9.0,80,0.00,,,0.00,WUHU21623XXSP,2013-01-12 10:23:00,
2013-01-12 04:27:00,66.4,60.1,29.86,SSW,202,5.0,9.0,80,0.00,,,0.00,WUHU21623XXSP,2013-01-12 10:27:00,
2013-01-12 04:28:00,66.4,60.1,29.86,SSE,168,5.0,9.0,80,0.00,,,0.00,WUHU21623XXSP,2013-01-12 10:28:00,
2013-01-12 04:32:00,66.4,60.1,29.86,South,180,9.0,9.0,80,0.00,,,0.00,WUHU21623XXSP,2013-01-12 10:32:00,
2013-01-12 04:33:00,66.4,60.1,29.86,South,170,5.0,9.0,80,0.00,,,0.00,WUHU21623XXSP,2013-01-12 10:33:00,
2013-01-12 04:37:00,66.4,60.1,29.86,South,180,5.0,9.0,80,0.00,,,0.00,WUHU21623XXSP,2013-01-12 10:37:00,
2013-01-12 04:38:00,66.4,60.1,29.86,SSE,157,3.0,9.0,80,0.00,,,0.00,WUHU21623XXSP,2013-01-12 10:38:00,
2013-01-12 04:42:00,66.4,60.1,29.86,SSW,202,2.0,7.0,80,0.00,,,0.00,WUHU21623XXSP,2013-01-12 10:42:00,
2013-01-12 04:43:00,66.4,60.1,29.86,South,184,2.0,7.0,80,0.00,,,0.00,WUHU21623XXSP,2013-01-12 10:43:00,
2013-01-12 04:44:00,66.4,60.1,29.86,SE,135,3.0,7.0,80,0.00,,,0.00,WUHU21623XXSP,2013-01-12 10:44:00,
2013-01-12 04:47:00,66.4,60.1,29.86,SSE,157,3.0,7.0,80,0.00,,,0.00,WUHU21623XXSP,2013-01-12 10:47:00,
2013-01-12 04:48:00,66.4,60.1,29.86,SSE,157,3.0,7.0,80,0.00,,,0.00,WUHU21623XXSP,2013-01-12 10:48:00,
2013-01-12 04:49:00,66.4,60.1,29.86,SSE,165,3.0,7.0,80,0.00,,,0.00,WUHU21623XXSP,2013-01-12 10:49:00,
2013-01-12 04:52:00,66.4,60.1,29.86,SSE,158,4.0,5.0,80,0.00,,,0.00,WUHU21623XXSP,2013-01-12 10:52:00,
2013-01-12 04:53:00,66.4,60.1,29.86,SSE,152,4.0,5.0,80,0.00,,,0.00,WUHU21623XXSP,2013-01-12 10:53:00,
2013-01-12 04:54:00,66.6,60.3,29.86,SSE,148,3.0,5.0,80,0.00,,,0.00,WUHU21623XXSP,2013-01-12 10:54:00,
2013-01-12 04:57:00,66.6,60.3,29.86,SE,142,2.0,5.0,80,0.00,,,0.00,WUHU21623XXSP,2013-01-12 10:57:00,
2013-01-12 04:58:00,66.6,60.3,29.86,SE,138,2.0,5.0,80,0.00,,,0.00,WUHU21623XXSP,2013-01-12 10:58:00,
2013-01-12 04:59:00,66.6,60.3,29.86,SE,133,2.0,5.0,80,0.00,,,0.00,WUHU21623XXSP,2013-01-12 10:59:00,
2013-01-12 05:03:00,66.6,60.3,29.86,ESE,108,2.0,5.0,80,0.00,,,0.00,WUHU21623XXSP,2013-01-12 11:03:00,
2013-01-12 05:04:00,66.6,60.3,29.86,East,90,3.0,5.0,80,0.00,,,0.00,WUHU21623XXSP,2013-01-12 11:04:00,
2013-01-12 05:08:00,66.6,60.3,29.86,ESE,120,2.0,4.0,80,0.00,,,0.00,WUHU21623XXSP,2013-01-12 11:08:00,
2013-01-12 05:09:00,66.6,60.3,29.86,East,90,3.0,4.0,80,0.00,,,0.00,WUHU21623XXSP,2013-01-12 11:09:00,
2013-01-12 05:13:00,66.6,59.9,29.86,SE,135,0.0,3.0,79,0.00,,,0.00,WUHU21623XXSP,2013-01-12 11:13:00,
2013-01-12 05:14:00,66.6,59.9,29.86,SE,135,0.0,3.0,79,0.00,,,0.00,WUHU21623XXSP,2013-01-12 11:14:00,
2013-01-12 05:18:00,66.6,59.9,29.86,SSE,157,2.0,3.0,79,0.00,,,0.00,WUHU21623XXSP,2013-01-12 11:18:00,
2013-01-12 05:19:00,66.6,59.9,29.86,SE,135,0.0,2.0,79,0.00,,,0.00,WUHU21623XXSP,2013-01-12 11:19:00,
2013-01-12 05:23:00,66.6,59.9,29.86,ESE,112,2.0,2.0,79,0.00,,,0.00,WUHU21623XXSP,2013-01-12 11:23:00,
2013-01-12 05:24:00,66.6,59.9,29.86,ESE,112,2.0,2.0,79,0.00,,,0.00,WUHU21623XXSP,2013-01-12 11:24:00,
2013-01-12 05:25:00,66.6,59.9,29.86,ESE,122,2.0,2.0,79,0.00,,,0.00,WUHU21623XXSP,2013-01-12 11:25:00,
2013-01-12 05:28:00,66.6,59.9,29.87,SSE,157,1.0,3.0,79,0.00,,,0.00,WUHU21623XXSP,2013-01-12 11:28:00,
2013-01-12 05:29:00,66.6,59.9,29.87,SE,135,1.0,3.0,79,0.00,,,0.00,WUHU21623XXSP,2013-01-12 11:29:00,
2013-01-12 05:30:00,66.6,59.9,29.86,SE,135,3.0,3.0,79,0.00,,,0.00,WUHU21623XXSP,2013-01-12 11:30:00,
2013-01-12 05:34:00,66.6,59.9,29.86,ESE,112,1.0,3.0,79,0.00,,,0.00,WUHU21623XXSP,2013-01-12 11:34:00,
2013-01-12 05:35:00,66.6,59.9,29.86,SE,124,2.0,3.0,79,0.00,,,0.00,WUHU21623XXSP,2013-01-12 11:35:00,
2013-01-12 05:39:00,66.6,59.9,29.86,SE,128,2.0,3.0,79,0.00,,,0.00,WUHU21623XXSP,2013-01-12 11:39:00,
2013-01-12 05:40:00,66.6,59.9,29.86,ESE,112,0.0,3.0,79,0.00,,,0.00,WUHU21623XXSP,2013-01-12 11:40:00,
2013-01-12 05:44:00,66.6,59.9,29.86,ESE,112,0.0,2.0,79,0.00,,,0.00,WUHU21623XXSP,2013-01-12 11:44:00,
2013-01-12 05:45:00,66.6,59.9,29.86,ESE,112,0.0,2.0,79,0.00,,,0.00,WUHU21623XXSP,2013-01-12 11:45:00,
2013-01-12 05:49:00,66.6,59.9,29.86,ESE,112,0.0,0.0,79,0.00,,,0.00,WUHU21623XXSP,2013-01-12 11:49:00,
2013-01-12 05:50:00,66.6,59.9,29.86,ESE,112,0.0,0.0,79,0.00,,,0.00,WUHU21623XXSP,2013-01-12 11:50:00,
2013-01-12 05:54:00,66.6,59.9,29.86,ESE,112,0.0,0.0,79,0.00,,,0.00,WUHU21623XXSP,2013-01-12 11:54:00,
2013-01-12 05:56:00,66.6,59.9,29.86,SE,135,0.0,0.0,79,0.00,,,0.00,WUHU21623XXSP,2013-01-12 11:56:00,
2013-01-12 05:59:00,66.6,59.9,29.86,SSE,157,2.0,2.0,79,0.00,,,0.00,WUHU21623XXSP,2013-01-12 11:59:00,
2013-01-12 06:00:00,66.6,59.9,29.86,SSE,157,2.0,2.0,79,0.00,,,0.00,WUHU21623XXSP,2013-01-12 12:00:00,
2013-01-12 06:01:00,66.6,59.9,29.86,SSE,157,0.0,2.0,79,0.00,,,0.00,WUHU21623XXSP,2013-01-12 12:01:00,
2013-01-12 06:04:00,66.6,59.9,29.87,SE,145,2.0,2.0,79,0.00,,,0.00,WUHU21623XXSP,2013-01-12 12:04:00,
2013-01-12 06:05:00,66.6,59.9,29.87,SE,135,2.0,2.0,79,0.00,,,0.00,WUHU21623XXSP,2013-01-12 12:05:00,
2013-01-12 06:06:00,66.6,59.9,29.87,SSE,147,2.0,2.0,79,0.00,,,0.00,WUHU21623XXSP,2013-01-12 12:06:00,
2013-01-12 06:09:00,66.6,59.9,29.87,SE,135,2.0,2.0,79,0.00,,,0.00,WUHU21623XXSP,2013-01-12 12:09:00,
2013-01-12 06:10:00,66.6,59.9,29.87,SE,135,2.0,2.0,79,0.00,,,0.00,WUHU21623XXSP,2013-01-12 12:10:00,
2013-01-12 06:11:00,66.6,59.9,29.87,SSE,157,3.0,3.0,79,0.00,,,0.00,WUHU21623XXSP,2013-01-12 12:11:00,
2013-01-12 06:15:00,66.6,59.9,29.87,SE,135,3.0,3.0,79,0.00,,,0.00,WUHU21623XXSP,2013-01-12 12:15:00,
2013-01-12 06:16:00,66.6,59.9,29.87,SE,135,2.0,3.0,79,0.00,,,0.00,WUHU21623XXSP,2013-01-12 12:16:00,
2013-01-12 06:20:00,66.4,59.7,29.87,SE,135,0.0,3.0,79,0.00,,,0.00,WUHU21623XXSP,2013-01-12 12:20:00,
2013-01-12 06:22:00,66.6,59.9,29.87,SE,135,0.0,3.0,79,0.00,,,0.00,WUHU21623XXSP,2013-01-12 12:22:00,
2013-01-12 06:25:00,66.4,59.7,29.88,SE,135,3.0,3.0,79,0.00,,,0.00,WUHU21623XXSP,2013-01-12 12:25:00,
2013-01-12 06:27:00,66.4,59.7,29.87,South,180,0.0,3.0,79,0.00,,,0.00,WUHU21623XXSP,2013-01-12 12:27:00,
2013-01-12 06:30:00,66.4,59.7,29.87,East,90,0.0,3.0,79,0.00,,,0.00,WUHU21623XXSP,2013-01-12 12:30:00,
2013-01-12 06:31:00,66.4,59.7,29.87,East,90,0.0,3.0,79,0.00,,,0.00,WUHU21623XXSP,2013-01-12 12:31:00,
2013-01-12 06:32:00,66.4,59.7,29.88,East,90,0.0,3.0,79,0.00,,,0.00,WUHU21623XXSP,2013-01-12 12:32:00,
2013-01-12 06:35:00,66.4,59.7,29.88,SSE,157,0.0,0.0,79,0.00,,,0.00,WUHU21623XXSP,2013-01-12 12:35:00,
2013-01-12 06:36:00,66.4,59.7,29.88,SE,135,0.0,0.0,79,0.00,,,0.00,WUHU21623XXSP,2013-01-12 12:36:00,
2013-01-12 06:37:00,66.4,59.7,29.88,SSE,157,2.0,3.0,79,0.00,,,0.00,WUHU21623XXSP,2013-01-12 12:37:00,
2013-01-12 06:40:00,66.4,59.7,29.88,SE,135,2.0,3.0,79,0.00,,,0.00,WUHU21623XXSP,2013-01-12 12:40:00,
2013-01-12 06:41:00,66.4,59.7,29.88,SE,135,2.0,3.0,79,0.00,,,0.00,WUHU21623XXSP,2013-01-12 12:41:00,
2013-01-12 06:42:00,66.4,59.7,29.88,ESE,112,0.0,3.0,79,0.00,,,0.00,WUHU21623XXSP,2013-01-12 12:42:00,
2013-01-12 06:45:00,66.4,59.7,29.88,ESE,112,0.0,3.0,79,0.00,,,0.00,WUHU21623XXSP,2013-01-12 12:45:00,
2013-01-12 06:46:00,66.4,59.7,29.87,ESE,112,0.0,3.0,79,0.00,,,0.00,WUHU21623XXSP,2013-01-12 12:46:00,
2013-01-12 06:47:00,66.4,59.7,29.88,SE,135,2.0,3.0,79,0.00,,,0.00,WUHU21623XXSP,2013-01-12 12:47:00,
2013-01-12 06:50:00,66.4,59.7,29.88,SE,135,2.0,2.0,79,0.00,,,0.00,WUHU21623XXSP,2013-01-12 12:50:00,
2013-01-12 06:51:00,66.4,59.7,29.88,SE,135,2.0,2.0,79,0.00,,,0.00,WUHU21623XXSP,2013-01-12 12:51:00,
2013-01-12 06:53:00,66.4,59.7,29.88,SE,135,2.0,3.0,79,0.00,,,0.00,WUHU21623XXSP,2013-01-12 12:53:00,
2013-01-12 06:55:00,66.4,59.7,29.88,ESE,112,1.0,3.0,79,0.00,,,0.00,WUHU21623XXSP,2013-01-12 12:55:00,
2013-01-12 06:56:00,66.4,59.7,29.88,ESE,112,1.0,3.0,79,0.00,,,0.00,WUHU21623XXSP,2013-01-12 12:56:00,
2013-01-12 06:58:00,66.4,59.7,29.88,ESE,112,0.0,3.0,79,0.00,,,0.00,WUHU21623XXSP,2013-01-12 12:58:00,
2013-01-12 07:00:00,66.4,59.7,29.87,East,90,2.0,3.0,79,0.00,,,0.00,WUHU21623XXSP,2013-01-12 13:00:00,
2013-01-12 07:01:00,66.4,59.7,29.87,East,90,2.0,3.0,79,0.00,,,0.00,WUHU21623XXSP,2013-01-12 13:01:00,
2013-01-12 07:03:00,66.4,59.7,29.87,ESE,112,3.0,3.0,79,0.00,,,0.00,WUHU21623XXSP,2013-01-12 13:03:00,
2013-01-12 07:05:00,66.4,59.7,29.87,East,90,4.0,4.0,79,0.00,,,0.00,WUHU21623XXSP,2013-01-12 13:05:00,
2013-01-12 07:06:00,66.4,59.7,29.88,East,95,3.0,4.0,79,0.00,,,0.00,WUHU21623XXSP,2013-01-12 13:06:00,
2013-01-12 07:08:00,66.4,59.7,29.87,ENE,67,3.0,5.0,79,0.00,,,0.00,WUHU21623XXSP,2013-01-12 13:08:00,
2013-01-12 07:10:00,66.4,59.7,29.87,East,99,3.0,5.0,79,0.00,,,0.00,WUHU21623XXSP,2013-01-12 13:10:00,
2013-01-12 07:11:00,66.4,59.7,29.87,ESE,112,4.0,5.0,79,0.00,,,0.00,WUHU21623XXSP,2013-01-12 13:11:00,
2013-01-12 07:12:00,66.4,59.7,29.87,East,90,3.0,5.0,79,0.00,,,0.00,WUHU21623XXSP,2013-01-12 13:12:00,
2013-01-12 07:13:00,66.4,59.7,29.87,ESE,106,3.0,5.0,79,0.00,,,0.00,WUHU21623XXSP,2013-01-12 13:13:00,
2013-01-12 07:15:00,66.4,59.7,29.87,ESE,112,2.0,5.0,79,0.00,,,0.00,WUHU21623XXSP,2013-01-12 13:15:00,
2013-01-12 07:17:00,66.2,59.5,29.87,ESE,112,2.0,5.0,79,0.00,,,0.00,WUHU21623XXSP,2013-01-12 13:17:00,
2013-01-12 07:18:00,66.2,59.5,29.88,ESE,112,3.0,5.0,79,0.00,,,0.00,WUHU21623XXSP,2013-01-12 13:18:00,
2013-01-12 07:20:00,66.4,59.7,29.88,ESE,109,3.0,4.0,79,0.00,,,0.00,WUHU21623XXSP,2013-01-12 13:20:00,
2013-01-12 07:22:00,66.2,59.5,29.88,ESE,110,2.0,4.0,79,0.00,,,0.00,WUHU21623XXSP,2013-01-12 13:22:00,
2013-01-12 07:24:00,66.2,59.5,29.88,East,90,3.0,4.0,79,0.00,,,0.00,WUHU21623XXSP,2013-01-12 13:24:00,
2013-01-12 07:26:00,66.2,59.5,29.88,ESE,103,2.0,4.0,79,0.00,,,0.00,WUHU21623XXSP,2013-01-12 13:26:00,
2013-01-12 07:27:00,66.2,59.5,29.88,ESE,112,3.0,4.0,79,0.00,,,0.00,WUHU21623XXSP,2013-01-12 13:27:00,
2013-01-12 07:29:00,66.2,59.5,29.88,East,101,2.0,4.0,79,0.00,,,0.00,WUHU21623XXSP,2013-01-12 13:29:00,
2013-01-12 07:31:00,66.2,59.5,29.88,ENE,75,2.0,3.0,79,0.00,,,0.00,WUHU21623XXSP,2013-01-12 13:31:00,
2013-01-12 07:32:00,66.2,59.5,29.87,East,90,2.0,3.0,79,0.00,,,0.00,WUHU21623XXSP,2013-01-12 13:32:00,
2013-01-12 07:33:00,66.2,59.5,29.87,ENE,67,2.0,3.0,79,0.00,,,0.00,WUHU21623XXSP,2013-01-12 13:33:00,
2013-01-12 07:34:00,66.0,59.3,29.87,East,84,2.0,3.0,79,0.00,,,0.00,WUHU21623XXSP,2013-01-12 13:34:00,
2013-01-12 07:36:00,66.0,59.3,29.87,East,93,2.0,3.0,79,0.00,,,0.00,WUHU21623XXSP,2013-01-12 13:36:00,
2013-01-12 07:38:00,66.0,59.3,29.88,ESE,114,2.0,4.0,79,0.00,,,0.00,WUHU21623XXSP,2013-01-12 13:38:00,
2013-01-12 07:39:00,66.0,59.3,29.88,ESE,123,1.0,4.0,79,0.00,,,0.00,WUHU21623XXSP,2013-01-12 13:39:00,
2013-01-12 07:41:00,66.0,59.3,29.88,ESE,112,2.0,4.0,79,0.00,,,0.00,WUHU21623XXSP,2013-01-12 13:41:00,
2013-01-12 07:43:00,66.0,59.3,29.88,ESE,112,2.0,4.0,79,0.00,,,0.00,WUHU21623XXSP,2013-01-12 13:43:00,
2013-01-12 07:44:00,66.0,59.3,29.88,ESE,112,2.0,4.0,79,0.00,,,0.00,WUHU21623XXSP,2013-01-12 13:44:00,
2013-01-12 07:46:00,66.0,59.3,29.88,East,90,1.0,4.0,79,0.00,,,0.00,WUHU21623XXSP,2013-01-12 13:46:00,
2013-01-12 07:48:00,66.0,59.3,29.88,ESE,112,2.0,3.0,79,0.00,,,0.00,WUHU21623XXSP,2013-01-12 13:48:00,
2013-01-12 07:49:00,66.0,59.3,29.88,ESE,112,2.0,3.0,79,0.00,,,0.00,WUHU21623XXSP,2013-01-12 13:49:00,
2013-01-12 07:51:00,66.0,59.3,29.88,ESE,112,3.0,3.0,79,0.00,,,0.00,WUHU21623XXSP,2013-01-12 13:51:00,
2013-01-12 07:53:00,66.0,59.3,29.88,ESE,112,4.0,4.0,79,0.00,,,0.00,WUHU21623XXSP,2013-01-12 13:53:00,
2013-01-12 07:54:00,66.0,59.3,29.89,ESE,117,3.0,5.0,79,0.00,,,0.00,WUHU21623XXSP,2013-01-12 13:54:00,
2013-01-12 07:56:00,66.0,59.3,29.88,SE,129,4.0,6.0,79,0.00,,,0.00,WUHU21623XXSP,2013-01-12 13:56:00,
2013-01-12 07:58:00,66.0,59.3,29.88,ESE,118,3.0,6.0,79,0.00,,,0.00,WUHU21623XXSP,2013-01-12 13:58:00,
2013-01-12 07:59:00,66.0,59.3,29.88,ESE,112,5.0,6.0,79,0.00,,,0.00,WUHU21623XXSP,2013-01-12 13:59:00,
2013-01-12 08:02:00,66.0,59.3,29.88,ESE,111,4.0,6.0,79,0.00,,,0.00,WUHU21623XXSP,2013-01-12 14:02:00,
2013-01-12 08:03:00,66.0,59.3,29.88,ESE,110,3.0,6.0,79,0.00,,,0.00,WUHU21623XXSP,2013-01-12 14:03:00,
2013-01-12 08:04:00,66.0,59.3,29.88,SE,135,3.0,6.0,79,0.00,,,0.00,WUHU21623XXSP,2013-01-12 14:04:00,
2013-01-12 08:07:00,66.0,59.3,29.89,ESE,113,4.0,6.0,79,0.00,,,0.00,WUHU21623XXSP,2013-01-12 14:07:00,
2013-01-12 08:08:00,66.0,59.3,29.88,ESE,115,3.0,6.0,79,0.00,,,0.00,WUHU21623XXSP,2013-01-12 14:08:00,
2013-01-12 08:09:00,66.0,59.3,29.89,ESE,122,2.0,6.0,79,0.00,,,0.00,WUHU21623XXSP,2013-01-12 14:09:00,
2013-01-12 08:10:00,66.0,59.3,29.88,ESE,112,4.0,6.0,79,0.00,,,0.00,WUHU21623XXSP,2013-01-12 14:10:00,
2013-01-12 08:12:00,66.0,59.3,29.89,SE,129,3.0,6.0,79,0.00,,,0.00,WUHU21623XXSP,2013-01-12 14:12:00,
2013-01-12 08:13:00,66.0,59.3,29.89,ESE,112,2.0,6.0,79,0.00,,,0.00,WUHU21623XXSP,2013-01-12 14:13:00,
2013-01-12 08:14:00,66.0,59.3,29.88,East,90,3.0,6.0,79,0.00,,,0.00,WUHU21623XXSP,2013-01-12 14:14:00,
2013-01-12 08:15:00,66.0,59.3,29.88,ESE,105,2.0,6.0,79,0.00,,,0.00,WUHU21623XXSP,2013-01-12 14:15:00,
2013-01-12 08:17:00,66.0,59.3,29.88,East,90,2.0,5.0,79,0.00,,,0.00,WUHU21623XXSP,2013-01-12 14:17:00,
2013-01-12 08:18:00,66.0,59.3,29.88,East,98,2.0,5.0,79,0.00,,,0.00,WUHU21623XXSP,2013-01-12 14:18:00,
2013-01-12 08:19:00,66.0,59.3,29.88,East,90,2.0,5.0,79,0.00,,,0.00,WUHU21623XXSP,2013-01-12 14:19:00,
2013-01-12 08:20:00,66.0,59.3,29.88,SE,135,0.0,5.0,79,0.00,,,0.00,WUHU21623XXSP,2013-01-12 14:20:00,
2013-01-12 08:22:00,66.0,59.3,29.88,SE,135,0.0,4.0,79,0.00,,,0.00,WUHU21623XXSP,2013-01-12 14:22:00,
2013-01-12 08:23:00,66.0,59.3,29.88,ESE,112,1.0,4.0,79,0.00,,,0.00,WUHU21623XXSP,2013-01-12 14:23:00,
2013-01-12 08:24:00,66.0,59.3,29.88,ESE,112,2.0,4.0,79,0.00,,,0.00,WUHU21623XXSP,2013-01-12 14:24:00,
2013-01-12 08:25:00,66.0,59.3,29.88,ESE,112,3.0,3.0,79,0.00,,,0.00,WUHU21623XXSP,2013-01-12 14:25:00,
2013-01-12 08:27:00,66.0,59.3,29.88,ESE,112,2.0,3.0,79,0.00,,,0.00,WUHU21623XXSP,2013-01-12 14:27:00,
2013-01-12 08:28:00,66.0,59.3,29.88,ESE,112,3.0,4.0,79,0.00,,,0.00,WUHU21623XXSP,2013-01-12 14:28:00,
2013-01-12 08:29:00,66.0,59.3,29.88,ESE,116,2.0,4.0,79,0.00,,,0.00,WUHU21623XXSP,2013-01-12 14:29:00,
2013-01-12 08:30:00,66.0,59.3,29.88,ESE,121,3.0,4.0,79,0.00,,,0.00,WUHU21623XXSP,2013-01-12 14:30:00,
2013-01-12 08:32:00,66.0,59.3,29.88,ESE,117,3.0,4.0,79,0.00,,,0.00,WUHU21623XXSP,2013-01-12 14:32:00,
2013-01-12 08:33:00,66.0,59.3,29.88,ESE,119,2.0,4.0,79,0.00,,,0.00,WUHU21623XXSP,2013-01-12 14:33:00,
2013-01-12 08:35:00,66.0,59.3,29.88,ESE,113,2.0,4.0,79,0.00,,,0.00,WUHU21623XXSP,2013-01-12 14:35:00,
2013-01-12 08:37:00,66.0,59.3,29.87,ESE,102,2.0,4.0,79,0.00,,,0.00,WUHU21623XXSP,2013-01-12 14:37:00,
2013-01-12 08:39:00,66.0,59.3,29.87,ESE,119,2.0,4.0,79,0.00,,,0.00,WUHU21623XXSP,2013-01-12 14:39:00,
2013-01-12 08:40:00,66.0,59.3,29.87,ESE,119,2.0,4.0,79,0.00,,,0.00,WUHU21623XXSP,2013-01-12 14:40:00,
2013-01-12 08:42:00,66.0,59.3,29.87,SE,135,0.0,3.0,79,0.00,,,0.00,WUHU21623XXSP,2013-01-12 14:42:00,
2013-01-12 08:44:00,66.2,59.5,29.87,East,90,0.0,3.0,79,0.00,,,0.00,WUHU21623XXSP,2013-01-12 14:44:00,
2013-01-12 08:45:00,66.2,59.5,29.87,ESE,112,0.0,3.0,79,0.00,,,0.00,WUHU21623XXSP,2013-01-12 14:45:00,
2013-01-12 08:47:00,66.2,59.5,29.87,SE,135,3.0,3.0,79,0.00,,,0.00,WUHU21623XXSP,2013-01-12 14:47:00,
2013-01-12 08:49:00,66.2,59.5,29.88,ESE,117,2.0,3.0,79,0.00,,,0.00,WUHU21623XXSP,2013-01-12 14:49:00,
2013-01-12 08:50:00,66.2,59.5,29.88,ESE,116,2.0,3.0,79,0.00,,,0.00,WUHU21623XXSP,2013-01-12 14:50:00,
2013-01-12 08:52:00,66.2,59.5,29.88,SE,135,0.0,3.0,79,0.00,,,0.00,WUHU21623XXSP,2013-01-12 14:52:00,
2013-01-12 08:55:00,66.2,59.5,29.88,ESE,112,0.0,3.0,79,0.00,,,0.00,WUHU21623XXSP,2013-01-12 14:55:00,
2013-01-12 08:58:00,66.2,59.5,29.87,ESE,121,2.0,3.0,79,0.00,,,0.00,WUHU21623XXSP,2013-01-12 14:58:00,
2013-01-12 09:00:00,66.4,59.7,29.87,ESE,112,3.0,4.0,79,0.00,,,0.00,WUHU21623XXSP,2013-01-12 15:00:00,
2013-01-12 09:01:00,66.4,59.7,29.88,SE,135,3.0,4.0,79,0.00,,,0.00,WUHU21623XXSP,2013-01-12 15:01:00,
2013-01-12 09:03:00,66.4,59.7,29.88,ESE,121,4.0,5.0,79,0.00,,,0.00,WUHU21623XXSP,2013-01-12 15:03:00,
2013-01-12 09:05:00,66.4,59.7,29.88,ESE,116,5.0,7.0,79,0.00,,,0.00,WUHU21623XXSP,2013-01-12 15:05:00,
2013-01-12 09:06:00,66.4,59.7,29.88,ESE,112,4.0,7.0,79,0.00,,,0.00,WUHU21623XXSP,2013-01-12 15:06:00,
2013-01-12 09:08:00,66.4,59.7,29.88,East,90,4.0,7.0,79,0.00,,,0.00,WUHU21623XXSP,2013-01-12 15:08:00,
2013-01-12 09:10:00,66.4,59.7,29.88,ESE,117,4.0,8.0,79,0.00,,,0.00,WUHU21623XXSP,2013-01-12 15:10:00,
2013-01-12 09:11:00,66.4,59.7,29.88,ESE,112,3.0,8.0,79,0.00,,,0.00,WUHU21623XXSP,2013-01-12 15:11:00,
2013-01-12 09:13:00,66.4,59.7,29.88,ESE,118,4.0,8.0,79,0.00,,,0.00,WUHU21623XXSP,2013-01-12 15:13:00,
2013-01-12 09:15:00,66.4,59.7,29.88,ESE,109,4.0,8.0,79,0.00,,,0.00,WUHU21623XXSP,2013-01-12 15:15:00,
2013-01-12 09:16:00,66.4,59.7,29.88,ESE,114,4.0,8.0,79,0.00,,,0.00,WUHU21623XXSP,2013-01-12 15:16:00,
2013-01-12 09:18:00,66.4,59.7,29.88,ESE,108,3.0,8.0,79,0.00,,,0.00,WUHU21623XXSP,2013-01-12 15:18:00,
2013-01-12 09:20:00,66.6,59.9,29.87,ESE,112,3.0,8.0,79,0.00,,,0.00,WUHU21623XXSP,2013-01-12 15:20:00,
2013-01-12 09:21:00,66.6,59.9,29.87,ESE,112,4.0,8.0,79,0.00,,,0.00,WUHU21623XXSP,2013-01-12 15:21:00,
2013-01-12 09:23:00,66.6,59.9,29.87,ESE,103,4.0,6.0,79,0.00,,,0.00,WUHU21623XXSP,2013-01-12 15:23:00,
2013-01-12 09:25:00,66.6,59.9,29.87,East,89,3.0,6.0,79,0.00,,,0.00,WUHU21623XXSP,2013-01-12 15:25:00,
2013-01-12 09:26:00,66.6,59.9,29.87,ESE,112,6.0,6.0,79,0.00,,,0.00,WUHU21623XXSP,2013-01-12 15:26:00,
2013-01-12 09:28:00,66.6,59.9,29.88,ESE,121,4.0,6.0,79,0.00,,,0.00,WUHU21623XXSP,2013-01-12 15:28:00,
2013-01-12 09:30:00,66.6,59.9,29.87,ESE,112,5.0,6.0,79,0.00,,,0.00,WUHU21623XXSP,2013-01-12 15:30:00,
2013-01-12 09:31:00,66.7,60.4,29.87,ESE,121,4.0,6.0,80,0.00,,,0.00,WUHU21623XXSP,2013-01-12 15:31:00,
2013-01-12 09:32:00,66.7,60.1,29.88,SE,128,4.0,6.0,79,0.00,,,0.00,WUHU21623XXSP,2013-01-12 15:32:00,
2013-01-12 09:33:00,66.7,60.4,29.88,ESE,110,2.0,6.0,80,0.00,,,0.00,WUHU21623XXSP,2013-01-12 15:33:00,
2013-01-12 09:35:00,66.7,60.4,29.88,ESE,112,6.0,6.0,80,0.00,,,0.00,WUHU21623XXSP,2013-01-12 15:35:00,
2013-01-12 09:36:00,66.7,60.4,29.88,ESE,122,4.0,6.0,80,0.00,,,0.00,WUHU21623XXSP,2013-01-12 15:36:00,
2013-01-12 09:37:00,66.7,60.4,29.88,ESE,120,4.0,6.0,80,0.00,,,0.00,WUHU21623XXSP,2013-01-12 15:37:00,
2013-01-12 09:38:00,66.7,60.4,29.88,ESE,112,5.0,6.0,80,0.00,,,0.00,WUHU21623XXSP,2013-01-12 15:38:00,
2013-01-12 09:40:00,66.7,60.4,29.87,ESE,111,5.0,8.0,80,0.00,,,0.00,WUHU21623XXSP,2013-01-12 15:40:00,
2013-01-12 09:41:00,66.7,60.4,29.87,ESE,112,6.0,8.0,80,0.00,,,0.00,WUHU21623XXSP,2013-01-12 15:41:00,
2013-01-12 09:42:00,66.7,60.4,29.87,SE,135,4.0,8.0,80,0.00,,,0.00,WUHU21623XXSP,2013-01-12 15:42:00,
2013-01-12 09:44:00,66.7,60.4,29.88,ESE,113,3.0,8.0,80,0.00,,,0.00,WUHU21623XXSP,2013-01-12 15:44:00,
2013-01-12 09:46:00,66.7,60.4,29.87,ESE,113,3.0,8.0,80,0.00,,,0.00,WUHU21623XXSP,2013-01-12 15:46:00,
2013-01-12 09:47:00,66.7,60.4,29.87,ESE,109,3.0,8.0,80,0.00,,,0.00,WUHU21623XXSP,2013-01-12 15:47:00,
2013-01-12 09:49:00,66.7,60.4,29.87,ESE,113,3.0,6.0,80,0.00,,,0.00,WUHU21623XXSP,2013-01-12 15:49:00,
2013-01-12 09:51:00,66.7,60.4,29.87,ESE,112,3.0,6.0,80,0.00,,,0.00,WUHU21623XXSP,2013-01-12 15:51:00,
2013-01-12 09:52:00,66.7,60.4,29.87,SE,135,4.0,6.0,80,0.00,,,0.00,WUHU21623XXSP,2013-01-12 15:52:00,
2013-01-12 09:55:00,66.7,60.4,29.87,ESE,120,4.0,7.0,80,0.00,,,0.00,WUHU21623XXSP,2013-01-12 15:55:00,
2013-01-12 09:56:00,66.7,60.4,29.87,ESE,112,5.0,7.0,80,0.00,,,0.00,WUHU21623XXSP,2013-01-12 15:56:00,
2013-01-12 09:57:00,66.7,60.4,29.87,ESE,104,4.0,7.0,80,0.00,,,0.00,WUHU21623XXSP,2013-01-12 15:57:00,
2013-01-12 10:00:00,66.7,60.4,29.86,ESE,115,5.0,7.0,80,0.00,,,0.00,WUHU21623XXSP,2013-01-12 16:00:00,
2013-01-12 10:01:00,66.9,60.6,29.86,ESE,123,4.0,7.0,80,0.00,,,0.00,WUHU21623XXSP,2013-01-12 16:01:00,
2013-01-12 10:02:00,66.7,60.4,29.86,ESE,123,4.0,7.0,80,0.00,,,0.00,WUHU21623XXSP,2013-01-12 16:02:00,
2013-01-12 10:05:00,66.9,60.6,29.86,ESE,112,5.0,6.0,80,0.00,,,0.00,WUHU21623XXSP,2013-01-12 16:05:00,
2013-01-12 10:06:00,66.9,60.6,29.86,ESE,111,3.0,6.0,80,0.00,,,0.00,WUHU21623XXSP,2013-01-12 16:06:00,
2013-01-12 10:07:00,66.9,60.6,29.86,SE,135,3.0,6.0,80,0.00,,,0.00,WUHU21623XXSP,2013-01-12 16:07:00,
2013-01-12 10:08:00,66.9,60.6,29.86,SE,135,4.0,6.0,80,0.00,,,0.00,WUHU21623XXSP,2013-01-12 16:08:00,
2013-01-12 10:10:00,66.9,60.6,29.86,ESE,117,5.0,7.0,80,0.00,,,0.00,WUHU21623XXSP,2013-01-12 16:10:00,
2013-01-12 10:11:00,66.9,60.6,29.86,ESE,115,3.0,7.0,80,0.00,,,0.00,WUHU21623XXSP,2013-01-12 16:11:00,
2013-01-12 10:12:00,66.9,60.6,29.86,SE,135,5.0,7.0,80,0.00,,,0.00,WUHU21623XXSP,2013-01-12 16:12:00,
2013-01-12 10:13:00,66.9,60.6,29.86,ESE,112,6.0,7.0,80,0.00,,,0.00,WUHU21623XXSP,2013-01-12 16:13:00,
2013-01-12 10:15:00,66.9,60.6,29.86,SE,127,5.0,7.0,80,0.00,,,0.00,WUHU21623XXSP,2013-01-12 16:15:00,
2013-01-12 10:17:00,66.9,60.6,29.86,ESE,112,7.0,8.0,80,0.00,,,0.00,WUHU21623XXSP,2013-01-12 16:17:00,
2013-01-12 10:18:00,66.9,60.6,29.86,ESE,110,6.0,8.0,80,0.00,,,0.00,WUHU21623XXSP,2013-01-12 16:18:00,
2013-01-12 10:20:00,66.9,60.6,29.86,SE,135,4.0,8.0,80,0.00,,,0.00,WUHU21623XXSP,2013-01-12 16:20:00,
2013-01-12 10:22:00,67.1,60.8,29.85,SE,124,4.0,8.0,80,0.00,,,0.00,WUHU21623XXSP,2013-01-12 16:22:00,
2013-01-12 10:23:00,67.1,60.8,29.85,SE,135,5.0,8.0,80,0.00,,,0.00,WUHU21623XXSP,2013-01-12 16:23:00,
2013-01-12 10:25:00,67.1,60.8,29.85,ESE,112,4.0,8.0,80,0.00,,,0.00,WUHU21623XXSP,2013-01-12 16:25:00,
2013-01-12 10:27:00,67.1,60.8,29.85,ESE,112,6.0,8.0,80,0.00,,,0.00,WUHU21623XXSP,2013-01-12 16:27:00,
2013-01-12 10:28:00,67.1,60.8,29.85,ESE,103,5.0,8.0,80,0.00,,,0.00,WUHU21623XXSP,2013-01-12 16:28:00,
2013-01-12 10:30:00,67.1,60.8,29.85,ESE,119,3.0,8.0,80,0.00,,,0.00,WUHU21623XXSP,2013-01-12 16:30:00,
2013-01-12 10:32:00,67.1,60.8,29.85,ESE,112,6.0,8.0,80,0.00,,,0.00,WUHU21623XXSP,2013-01-12 16:32:00,
2013-01-12 10:33:00,67.1,60.8,29.85,ESE,112,5.0,8.0,80,0.00,,,0.00,WUHU21623XXSP,2013-01-12 16:33:00,
2013-01-12 10:35:00,67.1,60.8,29.85,ESE,107,4.0,8.0,80,0.00,,,0.00,WUHU21623XXSP,2013-01-12 16:35:00,
2013-01-12 10:37:00,67.3,61.0,29.85,ESE,111,3.0,8.0,80,0.00,,,0.00,WUHU21623XXSP,2013-01-12 16:37:00,
2013-01-12 10:38:00,67.3,61.0,29.85,ESE,115,3.0,8.0,80,0.00,,,0.00,WUHU21623XXSP,2013-01-12 16:38:00,
2013-01-12 10:40:00,67.3,61.0,29.85,ESE,113,4.0,7.0,80,0.00,,,0.00,WUHU21623XXSP,2013-01-12 16:40:00,
2013-01-12 10:42:00,67.3,61.0,29.85,ESE,107,3.0,7.0,80,0.00,,,0.00,WUHU21623XXSP,2013-01-12 16:42:00,
2013-01-12 10:43:00,67.3,61.0,29.85,SE,135,4.0,7.0,80,0.00,,,0.00,WUHU21623XXSP,2013-01-12 16:43:00,
2013-01-12 10:46:00,67.3,61.0,29.84,ESE,121,3.0,5.0,80,0.00,,,0.00,WUHU21623XXSP,2013-01-12 16:46:00,
2013-01-12 10:47:00,67.3,61.0,29.84,SE,135,5.0,5.0,80,0.00,,,0.00,WUHU21623XXSP,2013-01-12 16:47:00,
2013-01-12 10:48:00,67.3,61.0,29.84,SE,131,3.0,5.0,80,0.00,,,0.00,WUHU21623XXSP,2013-01-12 16:48:00,
2013-01-12 10:51:00,67.3,61.0,29.84,East,90,5.0,5.0,80,0.00,,,0.00,WUHU21623XXSP,2013-01-12 16:51:00,
2013-01-12 10:53:00,67.3,61.0,29.84,SE,135,5.0,5.0,80,0.00,,,0.00,WUHU21623XXSP,2013-01-12 16:53:00,
2013-01-12 10:54:00,67.3,61.0,29.84,SE,135,3.0,5.0,80,0.00,,,0.00,WUHU21623XXSP,2013-01-12 16:54:00,
2013-01-12 10:56:00,67.3,61.0,29.84,SE,135,4.0,5.0,80,0.00,,,0.00,WUHU21623XXSP,2013-01-12 16:56:00,
2013-01-12 10:58:00,67.3,61.0,29.85,SE,130,4.0,6.0,80,0.00,,,0.00,WUHU21623XXSP,2013-01-12 16:58:00,
2013-01-12 10:59:00,67.3,61.0,29.84,SE,128,4.0,6.0,80,0.00,,,0.00,WUHU21623XXSP,2013-01-12 16:59:00,
2013-01-12 11:01:00,67.3,61.3,29.84,SE,140,2.0,6.0,81,0.00,,,0.00,WUHU21623XXSP,2013-01-12 17:01:00,
2013-01-12 11:03:00,67.3,61.3,29.84,SSE,148,2.0,6.0,81,0.00,,,0.00,WUHU21623XXSP,2013-01-12 17:03:00,
2013-01-12 11:04:00,67.5,61.5,29.84,SSE,157,2.0,6.0,81,0.00,,,0.00,WUHU21623XXSP,2013-01-12 17:04:00,
2013-01-12 11:06:00,67.6,61.7,29.84,SSE,151,3.0,6.0,81,0.00,,,0.00,WUHU21623XXSP,2013-01-12 17:06:00,
2013-01-12 11:08:00,67.6,61.7,29.84,SSE,159,3.0,6.0,81,0.00,,,0.00,WUHU21623XXSP,2013-01-12 17:08:00,
2013-01-12 11:09:00,67.6,61.7,29.83,SSE,157,2.0,6.0,81,0.00,,,0.00,WUHU21623XXSP,2013-01-12 17:09:00,
2013-01-12 11:12:00,67.6,61.7,29.84,SSE,158,2.0,5.0,81,0.00,,,0.00,WUHU21623XXSP,2013-01-12 17:12:00,
2013-01-12 11:13:00,67.6,61.7,29.84,SSE,154,3.0,6.0,81,0.00,,,0.00,WUHU21623XXSP,2013-01-12 17:13:00,
2013-01-12 11:14:00,67.6,61.7,29.84,SSE,151,4.0,6.0,81,0.00,,,0.00,WUHU21623XXSP,2013-01-12 17:14:00,
2013-01-12 11:17:00,67.6,61.7,29.83,ESE,112,5.0,6.0,81,0.00,,,0.00,WUHU21623XXSP,2013-01-12 17:17:00,
2013-01-12 11:18:00,67.6,61.7,29.83,SSE,157,5.0,7.0,81,0.00,,,0.00,WUHU21623XXSP,2013-01-12 17:18:00,
2013-01-12 11:19:00,67.6,61.7,29.83,SE,139,5.0,7.0,81,0.00,,,0.00,WUHU21623XXSP,2013-01-12 17:19:00,
2013-01-12 11:22:00,67.6,61.7,29.82,SE,130,3.0,7.0,81,0.00,,,0.00,WUHU21623XXSP,2013-01-12 17:22:00,
2013-01-12 11:23:00,67.8,61.8,29.82,SSE,149,4.0,7.0,81,0.00,,,0.00,WUHU21623XXSP,2013-01-12 17:23:00,
2013-01-12 11:24:00,67.8,61.8,29.82,SSE,156,3.0,7.0,81,0.00,,,0.00,WUHU21623XXSP,2013-01-12 17:24:00,
2013-01-12 11:27:00,67.8,61.8,29.82,SE,145,4.0,9.0,81,0.00,,,0.00,WUHU21623XXSP,2013-01-12 17:27:00,
2013-01-12 11:28:00,67.8,61.8,29.82,SE,135,4.0,9.0,81,0.00,,,0.00,WUHU21623XXSP,2013-01-12 17:28:00,
2013-01-12 11:29:00,67.8,61.8,29.82,SE,131,4.0,9.0,81,0.00,,,0.00,WUHU21623XXSP,2013-01-12 17:29:00,
2013-01-12 11:32:00,67.8,61.8,29.82,SE,135,3.0,9.0,81,0.00,,,0.00,WUHU21623XXSP,2013-01-12 17:32:00,
2013-01-12 11:34:00,67.8,61.8,29.81,South,180,2.0,9.0,81,0.00,,,0.00,WUHU21623XXSP,2013-01-12 17:34:00,
2013-01-12 11:37:00,67.8,61.8,29.81,SSE,157,3.0,5.0,81,0.00,,,0.00,WUHU21623XXSP,2013-01-12 17:37:00,
2013-01-12 11:39:00,67.8,61.8,29.81,SSE,157,2.0,5.0,81,0.00,,,0.00,WUHU21623XXSP,2013-01-12 17:39:00,
2013-01-12 11:43:00,67.8,61.8,29.81,SSE,162,4.0,6.0,81,0.00,,,0.00,WUHU21623XXSP,2013-01-12 17:43:00,
2013-01-12 11:44:00,67.8,61.8,29.81,South,172,3.0,6.0,81,0.00,,,0.00,WUHU21623XXSP,2013-01-12 17:44:00,
2013-01-12 11:45:00,67.8,61.8,29.81,SSW,202,3.0,6.0,81,0.00,,,0.00,WUHU21623XXSP,2013-01-12 17:45:00,
2013-01-12 11:48:00,67.8,61.8,29.80,SSE,157,5.0,8.0,81,0.00,,,0.00,WUHU21623XXSP,2013-01-12 17:48:00,
2013-01-12 11:49:00,67.8,61.8,29.80,SSE,156,5.0,8.0,81,0.00,,,0.00,WUHU21623XXSP,2013-01-12 17:49:00,
2013-01-12 11:50:00,67.8,61.8,29.80,SSE,157,3.0,8.0,81,0.00,,,0.00,WUHU21623XXSP,2013-01-12 17:50:00,
2013-01-12 11:53:00,67.8,61.8,29.80,SE,139,3.0,8.0,81,0.00,,,0.00,WUHU21623XXSP,2013-01-12 17:53:00,
2013-01-12 11:54:00,68.0,62.0,29.80,SSE,148,2.0,8.0,81,0.00,,,0.00,WUHU21623XXSP,2013-01-12 17:54:00,
2013-01-12 11:55:00,67.8,61.8,29.80,South,178,2.0,8.0,81,0.00,,,0.00,WUHU21623XXSP,2013-01-12 17:55:00,
2013-01-12 11:58:00,68.0,62.3,29.80,SE,135,8.0,8.0,82,0.00,,,0.00,WUHU21623XXSP,2013-01-12 17:58:00,
2013-01-12 11:59:00,68.2,62.5,29.80,SSE,162,5.0,8.0,82,0.00,,,0.00,WUHU21623XXSP,2013-01-12 17:59:00,
2013-01-12 12:00:00,68.0,62.3,29.80,SSE,167,5.0,8.0,82,0.00,,,0.00,WUHU21623XXSP,2013-01-12 18:00:00,
2013-01-12 12:03:00,68.2,62.5,29.79,SSE,166,2.0,8.0,82,0.00,,,0.00,WUHU21623XXSP,2013-01-12 18:03:00,
2013-01-12 12:04:00,68.2,62.5,29.79,SSE,153,3.0,8.0,82,0.00,,,0.00,WUHU21623XXSP,2013-01-12 18:04:00,
2013-01-12 12:05:00,68.2,62.5,29.79,SSE,157,4.0,8.0,82,0.00,,,0.00,WUHU21623XXSP,2013-01-12 18:05:00,
2013-01-12 12:09:00,68.2,62.5,29.79,SSE,157,10.0,10.0,82,0.00,,,0.00,WUHU21623XXSP,2013-01-12 18:09:00,
2013-01-12 12:10:00,68.2,62.5,29.79,South,174,5.0,10.0,82,0.00,,,0.00,WUHU21623XXSP,2013-01-12 18:10:00,
2013-01-12 12:14:00,68.4,62.7,29.78,South,172,8.0,11.0,83,0.00,,,0.00,WUHU21623XXSP,2013-01-12 18:14:00,
2013-01-12 12:15:00,68.4,63.0,29.78,SSE,157,10.0,11.0,83,0.00,,,0.00,WUHU21623XXSP,2013-01-12 18:15:00,
2013-01-12 12:19:00,68.5,63.2,29.78,SSE,157,6.0,11.0,83,0.00,,,0.00,WUHU21623XXSP,2013-01-12 18:19:00,
2013-01-12 12:20:00,68.5,63.2,29.78,SSE,157,6.0,11.0,83,0.00,,,0.00,WUHU21623XXSP,2013-01-12 18:20:00,
2013-01-12 12:25:00,68.7,63.3,29.78,SSW,205,4.0,10.0,83,0.00,,,0.00,WUHU21623XXSP,2013-01-12 18:25:00,
2013-01-12 12:30:00,68.9,63.5,29.78,West,270,3.0,10.0,83,0.00,,,0.00,WUHU21623XXSP,2013-01-12 18:30:00,
2013-01-12 12:35:00,68.7,63.0,29.79,WNW,282,7.0,10.0,82,0.00,,,0.00,WUHU21623XXSP,2013-01-12 18:35:00,
2013-01-12 12:40:00,68.2,62.2,29.78,WNW,296,5.0,10.0,81,0.00,,,0.00,WUHU21623XXSP,2013-01-12 18:40:00,
2013-01-12 12:45:00,67.6,61.7,29.77,West,281,3.0,6.0,81,0.00,,,0.00,WUHU21623XXSP,2013-01-12 18:45:00,
2013-01-12 12:50:00,67.3,61.3,29.77,NW,315,3.0,7.0,81,0.00,,,0.00,WUHU21623XXSP,2013-01-12 18:50:00,
2013-01-12 12:55:00,66.7,60.4,29.77,NNW,337,5.0,7.0,80,0.00,,,0.00,WUHU21623XXSP,2013-01-12 18:55:00,
2013-01-12 12:56:00,66.7,60.4,29.77,NNW,327,5.0,7.0,80,0.00,,,0.00,WUHU21623XXSP,2013-01-12 18:56:00,
2013-01-12 13:00:00,66.0,59.3,29.76,West,270,9.0,12.0,79,0.00,,,0.00,WUHU21623XXSP,2013-01-12 19:00:00,
2013-01-12 13:01:00,66.0,59.3,29.76,WNW,298,8.0,12.0,79,0.00,,,0.00,WUHU21623XXSP,2013-01-12 19:01:00,
2013-01-12 13:02:00,65.7,59.0,29.76,WNW,299,7.0,12.0,79,0.00,,,0.00,WUHU21623XXSP,2013-01-12 19:02:00,
2013-01-12 13:05:00,65.1,58.1,29.77,WNW,292,7.0,12.0,78,0.00,,,0.00,WUHU21623XXSP,2013-01-12 19:05:00,
2013-01-12 13:06:00,64.9,57.9,29.77,WNW,292,10.0,12.0,78,0.00,,,0.00,WUHU21623XXSP,2013-01-12 19:06:00,
2013-01-12 13:07:00,64.8,57.7,29.76,WNW,292,8.0,11.0,78,0.00,,,0.00,WUHU21623XXSP,2013-01-12 19:07:00,
2013-01-12 13:10:00,64.0,56.7,29.77,WNW,303,8.0,11.0,77,0.00,,,0.00,WUHU21623XXSP,2013-01-12 19:10:00,
2013-01-12 13:11:00,63.9,56.5,29.77,NW,310,7.0,11.0,77,0.00,,,0.00,WUHU21623XXSP,2013-01-12 19:11:00,
2013-01-12 13:13:00,63.5,56.1,29.76,NW,309,6.0,11.0,77,0.00,,,0.00,WUHU21623XXSP,2013-01-12 19:13:00,
2013-01-12 13:15:00,63.1,55.8,29.76,NW,315,5.0,10.0,77,0.00,,,0.00,WUHU21623XXSP,2013-01-12 19:15:00,
2013-01-12 13:16:00,63.0,55.6,29.76,WNW,297,4.0,10.0,77,0.00,,,0.00,WUHU21623XXSP,2013-01-12 19:16:00,
2013-01-12 13:18:00,62.6,55.2,29.76,NW,315,7.0,9.0,77,0.00,,,0.00,WUHU21623XXSP,2013-01-12 19:18:00,
2013-01-12 13:21:00,62.4,55.4,29.76,WNW,289,4.0,8.0,78,0.00,,,0.00,WUHU21623XXSP,2013-01-12 19:21:00,
2013-01-12 13:22:00,62.2,55.3,29.76,WNW,292,5.0,8.0,78,0.00,,,0.00,WUHU21623XXSP,2013-01-12 19:22:00,
2013-01-12 13:23:00,62.1,55.1,29.76,West,270,7.0,7.0,78,0.00,,,0.00,WUHU21623XXSP,2013-01-12 19:23:00,
2013-01-12 13:26:00,61.9,55.3,29.76,WNW,292,6.0,7.0,79,0.00,,,0.00,WUHU21623XXSP,2013-01-12 19:26:00,
2013-01-12 13:27:00,61.7,55.1,29.76,NNW,337,5.0,7.0,79,0.00,,,0.00,WUHU21623XXSP,2013-01-12 19:27:00,
2013-01-12 13:28:00,61.7,55.1,29.76,NW,315,7.0,7.0,79,0.02,,,0.02,WUHU21623XXSP,2013-01-12 19:28:00,
2013-01-12 13:31:00,61.5,55.0,29.75,NW,326,3.0,7.0,79,0.02,,,0.02,WUHU21623XXSP,2013-01-12 19:31:00,
2013-01-12 13:32:00,61.5,55.0,29.76,NW,304,2.0,7.0,79,0.04,,,0.04,WUHU21623XXSP,2013-01-12 19:32:00,
2013-01-12 13:33:00,61.3,55.2,29.76,NNW,344,3.0,7.0,80,0.04,,,0.04,WUHU21623XXSP,2013-01-12 19:33:00,
2013-01-12 13:36:00,61.3,55.2,29.76,North,0,3.0,7.0,80,0.06,,,0.04,WUHU21623XXSP,2013-01-12 19:36:00,
2013-01-12 13:37:00,61.3,55.2,29.76,NE,45,4.0,7.0,80,0.06,,,0.06,WUHU21623XXSP,2013-01-12 19:37:00,
2013-01-12 13:38:00,61.3,55.2,29.77,NW,315,4.0,6.0,80,0.08,,,0.08,WUHU21623XXSP,2013-01-12 19:38:00,
2013-01-12 13:41:00,61.3,55.2,29.76,NW,304,3.0,6.0,80,0.12,,,0.10,WUHU21623XXSP,2013-01-12 19:41:00,
2013-01-12 13:42:00,61.3,55.2,29.76,NNW,337,6.0,6.0,80,0.14,,,0.15,WUHU21623XXSP,2013-01-12 19:42:00,
2013-01-12 13:43:00,61.3,55.2,29.76,NNW,343,5.0,7.0,80,0.18,,,0.19,WUHU21623XXSP,2013-01-12 19:43:00,
2013-01-12 13:46:00,61.2,55.0,29.75,NNW,337,7.0,9.0,80,0.31,,,0.31,WUHU21623XXSP,2013-01-12 19:46:00,
2013-01-12 13:47:00,61.0,54.8,29.75,NNW,337,8.0,9.0,80,0.31,,,0.31,WUHU21623XXSP,2013-01-12 19:47:00,
2013-01-12 13:48:00,61.0,54.5,29.75,NW,308,8.0,10.0,79,0.33,,,0.33,WUHU21623XXSP,2013-01-12 19:48:00,
2013-01-12 13:52:00,60.4,54.0,29.76,NW,315,10.0,11.0,79,0.33,,,0.33,WUHU21623XXSP,2013-01-12 19:52:00,
2013-01-12 13:54:00,60.1,53.2,29.76,WNW,295,8.0,11.0,78,0.33,,,0.33,WUHU21623XXSP,2013-01-12 19:54:00,
2013-01-12 13:57:00,59.5,53.1,29.76,NW,305,7.0,11.0,79,0.33,,,0.33,WUHU21623XXSP,2013-01-12 19:57:00,
2013-01-12 13:59:00,59.2,52.9,29.76,NW,313,7.0,11.0,79,0.33,,,0.33,WUHU21623XXSP,2013-01-12 19:59:00,
2013-01-12 14:02:00,58.8,52.3,29.76,WNW,292,7.0,10.0,79,0.35,,,0.35,WUHU21623XXSP,2013-01-12 20:02:00,
2013-01-12 14:04:00,58.8,52.3,29.77,WNW,292,6.0,10.0,79,0.37,,,0.37,WUHU21623XXSP,2013-01-12 20:04:00,
2013-01-12 14:07:00,58.6,52.2,29.76,WNW,293,5.0,9.0,79,0.41,,,0.41,WUHU21623XXSP,2013-01-12 20:07:00,
2013-01-12 14:08:00,58.6,52.2,29.76,WNW,291,6.0,9.0,79,0.41,,,0.41,WUHU21623XXSP,2013-01-12 20:08:00,
2013-01-12 14:09:00,58.5,52.3,29.76,NW,315,7.0,9.0,80,0.43,,,0.43,WUHU21623XXSP,2013-01-12 20:09:00,
2013-01-12 14:12:00,58.3,52.2,29.75,NW,316,6.0,9.0,80,0.51,,,0.51,WUHU21623XXSP,2013-01-12 20:12:00,
2013-01-12 14:13:00,58.1,52.0,29.75,NW,321,6.0,9.0,80,0.53,,,0.53,WUHU21623XXSP,2013-01-12 20:13:00,
2013-01-12 14:14:00,58.1,52.0,29.74,NW,314,6.0,9.0,80,0.55,,,0.55,WUHU21623XXSP,2013-01-12 20:14:00,
2013-01-12 14:17:00,57.9,52.1,29.75,NNE,22,5.0,9.0,81,0.61,,,0.61,WUHU21623XXSP,2013-01-12 20:17:00,
2013-01-12 14:18:00,57.9,52.1,29.75,NNE,22,9.0,9.0,81,0.61,,,0.61,WUHU21623XXSP,2013-01-12 20:18:00,
2013-01-12 14:19:00,57.9,52.1,29.75,NNW,337,6.0,9.0,81,0.65,,,0.64,WUHU21623XXSP,2013-01-12 20:19:00,
2013-01-12 14:22:00,57.9,52.1,29.75,WNW,292,7.0,9.0,81,0.73,,,0.74,WUHU21623XXSP,2013-01-12 20:22:00,
2013-01-12 14:23:00,57.9,52.1,29.75,WNW,292,7.0,9.0,81,0.73,,,0.74,WUHU21623XXSP,2013-01-12 20:23:00,
2013-01-12 14:24:00,57.9,52.1,29.75,WNW,299,7.0,9.0,81,0.71,,,0.74,WUHU21623XXSP,2013-01-12 20:24:00,
2013-01-12 14:28:00,57.7,51.9,29.76,WNW,292,7.0,10.0,81,0.71,,,0.74,WUHU21623XXSP,2013-01-12 20:28:00,
2013-01-12 14:29:00,57.7,51.9,29.76,WNW,291,6.0,10.0,81,0.69,,,0.74,WUHU21623XXSP,2013-01-12 20:29:00,
2013-01-12 14:33:00,57.6,51.8,29.75,NNW,329,4.0,10.0,81,0.69,,,0.76,WUHU21623XXSP,2013-01-12 20:33:00,
2013-01-12 14:34:00,57.4,51.6,29.76,NW,315,8.0,10.0,81,0.69,,,0.76,WUHU21623XXSP,2013-01-12 20:34:00,
2013-01-12 14:38:00,57.4,51.6,29.76,WNW,293,8.0,10.0,81,0.65,,,0.76,WUHU21623XXSP,2013-01-12 20:38:00,
2013-01-12 14:39:00,57.4,51.6,29.76,NW,305,6.0,10.0,81,0.65,,,0.76,WUHU21623XXSP,2013-01-12 20:39:00,
2013-01-12 14:43:00,57.0,50.9,29.76,WNW,292,5.0,10.0,80,0.55,,,0.76,WUHU21623XXSP,2013-01-12 20:43:00,
2013-01-12 14:44:00,57.0,50.9,29.76,NW,315,8.0,10.0,80,0.55,,,0.76,WUHU21623XXSP,2013-01-12 20:44:00,
2013-01-12 14:48:00,57.0,50.9,29.77,WNW,301,3.0,9.0,80,0.43,,,0.76,WUHU21623XXSP,2013-01-12 20:48:00,
2013-01-12 14:49:00,57.0,50.9,29.76,WNW,293,3.0,9.0,80,0.43,,,0.76,WUHU21623XXSP,2013-01-12 20:49:00,
2013-01-12 14:53:00,57.0,50.9,29.76,NNW,330,2.0,8.0,80,0.43,,,0.76,WUHU21623XXSP,2013-01-12 20:53:00,
2013-01-12 14:54:00,57.0,50.9,29.76,WNW,302,2.0,7.0,80,0.43,,,0.76,WUHU21623XXSP,2013-01-12 20:54:00,
2013-01-12 14:58:00,57.0,50.9,29.77,WNW,299,7.0,9.0,80,0.41,,,0.76,WUHU21623XXSP,2013-01-12 20:58:00,
2013-01-12 14:59:00,57.0,50.9,29.77,WNW,298,6.0,9.0,80,0.41,,,0.76,WUHU21623XXSP,2013-01-12 20:59:00,
2013-01-12 15:03:00,57.0,50.9,29.78,WNW,292,4.0,9.0,80,0.39,,,0.76,WUHU21623XXSP,2013-01-12 21:03:00,
2013-01-12 15:04:00,57.0,50.9,29.78,WNW,292,8.0,9.0,80,0.35,,,0.76,WUHU21623XXSP,2013-01-12 21:04:00,
2013-01-12 15:05:00,56.8,50.7,29.78,NW,308,7.0,9.0,80,0.35,,,0.76,WUHU21623XXSP,2013-01-12 21:05:00,
2013-01-12 15:08:00,56.8,50.7,29.78,WNW,298,5.0,9.0,80,0.24,,,0.76,WUHU21623XXSP,2013-01-12 21:08:00,
2013-01-12 15:09:00,56.8,50.7,29.78,WNW,292,6.0,9.0,80,0.24,,,0.76,WUHU21623XXSP,2013-01-12 21:09:00,
2013-01-12 15:10:00,56.8,50.7,29.78,NNW,337,10.0,10.0,80,0.24,,,0.76,WUHU21623XXSP,2013-01-12 21:10:00,
2013-01-12 15:14:00,56.5,50.4,29.78,NNW,337,7.0,10.0,80,0.18,,,0.76,WUHU21623XXSP,2013-01-12 21:14:00,
2013-01-12 15:15:00,56.5,50.4,29.79,WNW,301,5.0,10.0,80,0.18,,,0.76,WUHU21623XXSP,2013-01-12 21:15:00,
2013-01-12 15:19:00,56.5,50.4,29.78,WNW,300,3.0,10.0,80,0.06,,,0.76,WUHU21623XXSP,2013-01-12 21:19:00,
2013-01-12 15:20:00,56.5,50.4,29.78,NW,312,5.0,9.0,80,0.02,,,0.76,WUHU21623XXSP,2013-01-12 21:20:00,
2013-01-12 15:24:00,56.5,50.4,29.78,WNW,292,10.0,10.0,80,0.02,,,0.76,WUHU21623XXSP,2013-01-12 21:24:00,
2013-01-12 15:25:00,56.3,50.2,29.78,NW,307,6.0,10.0,80,0.02,,,0.76,WUHU21623XXSP,2013-01-12 21:25:00,
2013-01-12 15:29:00,56.3,50.2,29.78,WNW,301,8.0,11.0,80,0.00,,,0.76,WUHU21623XXSP,2013-01-12 21:29:00,
2013-01-12 15:30:00,56.5,50.4,29.78,WNW,302,7.0,11.0,80,0.00,,,0.76,WUHU21623XXSP,2013-01-12 21:30:00,
2013-01-12 15:31:00,56.3,50.2,29.78,WNW,295,7.0,11.0,80,0.00,,,0.76,WUHU21623XXSP,2013-01-12 21:31:00,
2013-01-12 15:34:00,56.3,50.2,29.78,WNW,293,7.0,11.0,80,0.00,,,0.76,WUHU21623XXSP,2013-01-12 21:34:00,
2013-01-12 15:35:00,56.1,49.6,29.79,WNW,292,7.0,11.0,79,0.00,,,0.76,WUHU21623XXSP,2013-01-12 21:35:00,
2013-01-12 15:36:00,56.1,49.6,29.79,WNW,292,12.0,12.0,79,0.00,,,0.76,WUHU21623XXSP,2013-01-12 21:36:00,
2013-01-12 15:39:00,55.9,49.1,29.79,NW,315,11.0,13.0,78,0.00,,,0.76,WUHU21623XXSP,2013-01-12 21:39:00,
2013-01-12 15:40:00,55.9,49.1,29.79,NW,307,9.0,13.0,78,0.00,,,0.76,WUHU21623XXSP,2013-01-12 21:40:00,
2013-01-12 15:41:00,55.8,48.9,29.79,WNW,292,8.0,13.0,78,0.00,,,0.76,WUHU21623XXSP,2013-01-12 21:41:00,
2013-01-12 15:44:00,55.6,48.4,29.80,NW,306,10.0,13.0,77,0.02,,,0.78,WUHU21623XXSP,2013-01-12 21:44:00,
2013-01-12 15:45:00,55.4,48.3,29.80,NW,309,9.0,13.0,77,0.02,,,0.78,WUHU21623XXSP,2013-01-12 21:45:00,
2013-01-12 15:46:00,55.2,48.1,29.79,WNW,292,7.0,13.0,77,0.02,,,0.78,WUHU21623XXSP,2013-01-12 21:46:00,
2013-01-12 15:50:00,55.0,47.9,29.80,NW,315,12.0,13.0,77,0.02,,,0.78,WUHU21623XXSP,2013-01-12 21:50:00,
2013-01-12 15:51:00,55.0,47.9,29.80,NW,311,11.0,15.0,77,0.02,,,0.78,WUHU21623XXSP,2013-01-12 21:51:00,
2013-01-12 15:55:00,54.5,47.1,29.81,NW,306,12.0,19.0,76,0.02,,,0.78,WUHU21623XXSP,2013-01-12 21:55:00,
2013-01-12 15:56:00,54.3,46.5,29.81,WNW,297,11.0,19.0,75,0.02,,,0.78,WUHU21623XXSP,2013-01-12 21:56:00,
2013-01-12 15:57:00,54.1,46.4,29.81,WNW,292,10.0,19.0,75,0.02,,,0.78,WUHU21623XXSP,2013-01-12 21:57:00,
2013-01-12 16:00:00,54.0,45.8,29.82,NW,315,11.0,19.0,74,0.02,,,0.78,WUHU21623XXSP,2013-01-12 22:00:00,
2013-01-12 16:01:00,53.8,45.7,29.82,WNW,292,15.0,19.0,74,0.02,,,0.78,WUHU21623XXSP,2013-01-12 22:01:00,
2013-01-12 16:02:00,53.8,45.7,29.82,WNW,303,12.0,19.0,74,0.02,,,0.78,WUHU21623XXSP,2013-01-12 22:02:00,
2013-01-12 16:05:00,53.4,45.3,29.82,WNW,292,11.0,17.0,74,0.02,,,0.78,WUHU21623XXSP,2013-01-12 22:05:00,
2013-01-12 16:06:00,53.2,45.2,29.82,NW,309,10.0,17.0,74,0.02,,,0.78,WUHU21623XXSP,2013-01-12 22:06:00,
2013-01-12 16:07:00,53.2,44.8,29.82,West,270,11.0,17.0,73,0.02,,,0.78,WUHU21623XXSP,2013-01-12 22:07:00,
2013-01-12 16:10:00,52.9,44.8,29.83,NW,315,10.0,17.0,74,0.02,,,0.78,WUHU21623XXSP,2013-01-12 22:10:00,
2013-01-12 16:11:00,52.9,44.8,29.83,WNW,298,9.0,17.0,74,0.02,,,0.78,WUHU21623XXSP,2013-01-12 22:11:00,
2013-01-12 16:12:00,52.9,44.8,29.83,NW,315,11.0,17.0,74,0.02,,,0.78,WUHU21623XXSP,2013-01-12 22:12:00,
2013-01-12 16:15:00,52.7,44.7,29.83,WNW,292,11.0,13.0,74,0.02,,,0.78,WUHU21623XXSP,2013-01-12 22:15:00,
2013-01-12 16:16:00,52.5,44.5,29.83,NW,307,8.0,13.0,74,0.02,,,0.78,WUHU21623XXSP,2013-01-12 22:16:00,
2013-01-12 16:17:00,52.5,44.5,29.83,North,0,8.0,13.0,74,0.02,,,0.78,WUHU21623XXSP,2013-01-12 22:17:00,
2013-01-12 16:20:00,52.5,44.5,29.83,WNW,292,10.0,13.0,74,0.02,,,0.78,WUHU21623XXSP,2013-01-12 22:20:00,
2013-01-12 16:21:00,52.5,44.5,29.83,NW,307,7.0,13.0,74,0.02,,,0.78,WUHU21623XXSP,2013-01-12 22:21:00,
2013-01-12 16:22:00,52.3,44.3,29.84,WNW,302,9.0,13.0,74,0.02,,,0.78,WUHU21623XXSP,2013-01-12 22:22:00,
2013-01-12 16:25:00,52.3,44.3,29.84,NW,315,8.0,20.0,74,0.02,,,0.78,WUHU21623XXSP,2013-01-12 22:25:00,
2013-01-12 16:26:00,52.3,44.3,29.84,NW,313,7.0,20.0,74,0.02,,,0.78,WUHU21623XXSP,2013-01-12 22:26:00,
2013-01-12 16:27:00,52.3,44.3,29.84,NW,318,7.0,20.0,74,0.02,,,0.78,WUHU21623XXSP,2013-01-12 22:27:00,
2013-01-12 16:31:00,52.3,44.3,29.84,NW,310,10.0,20.0,74,0.02,,,0.78,WUHU21623XXSP,2013-01-12 22:31:00,
2013-01-12 16:32:00,52.3,44.3,29.84,NW,308,10.0,20.0,74,0.02,,,0.78,WUHU21623XXSP,2013-01-12 22:32:00,
2013-01-12 16:36:00,52.3,44.3,29.85,NW,315,11.0,14.0,74,0.02,,,0.78,WUHU21623XXSP,2013-01-12 22:36:00,
2013-01-12 16:37:00,52.2,44.1,29.85,WNW,295,9.0,14.0,74,0.02,,,0.78,WUHU21623XXSP,2013-01-12 22:37:00,
2013-01-12 16:38:00,52.2,44.1,29.85,NW,315,10.0,14.0,74,0.02,,,0.78,WUHU21623XXSP,2013-01-12 22:38:00,
2013-01-12 16:41:00,52.2,43.8,29.86,WNW,285,10.0,17.0,73,0.02,,,0.78,WUHU21623XXSP,2013-01-12 22:41:00,
2013-01-12 16:42:00,52.0,43.6,29.85,NW,315,11.0,17.0,73,0.02,,,0.78,WUHU21623XXSP,2013-01-12 22:42:00,
2013-01-12 16:43:00,52.0,43.6,29.85,WNW,293,10.0,17.0,73,0.02,,,0.78,WUHU21623XXSP,2013-01-12 22:43:00,
2013-01-12 16:46:00,51.6,43.3,29.85,WNW,294,11.0,17.0,73,0.00,,,0.78,WUHU21623XXSP,2013-01-12 22:46:00,
2013-01-12 16:47:00,51.6,42.9,29.85,NW,315,13.0,17.0,72,0.00,,,0.78,WUHU21623XXSP,2013-01-12 22:47:00,
2013-01-12 16:48:00,51.6,42.9,29.85,NW,308,14.0,17.0,72,0.00,,,0.78,WUHU21623XXSP,2013-01-12 22:48:00,
2013-01-12 16:51:00,51.3,42.6,29.86,NW,311,10.0,17.0,72,0.00,,,0.78,WUHU21623XXSP,2013-01-12 22:51:00,
2013-01-12 16:52:00,51.1,42.4,29.86,WNW,292,16.0,23.0,72,0.00,,,0.78,WUHU21623XXSP,2013-01-12 22:52:00,
2013-01-12 16:53:00,50.9,42.2,29.85,WNW,296,15.0,23.0,72,0.00,,,0.78,WUHU21623XXSP,2013-01-12 22:53:00,
2013-01-12 16:56:00,50.7,42.0,29.86,WNW,292,17.0,23.0,72,0.00,,,0.78,WUHU21623XXSP,2013-01-12 22:56:00,
2013-01-12 16:58:00,50.4,41.7,29.86,NW,308,13.0,23.0,72,0.00,,,0.78,WUHU21623XXSP,2013-01-12 22:58:00,
2013-01-12 16:59:00,50.4,41.7,29.86,NW,305,10.0,23.0,72,0.00,,,0.78,WUHU21623XXSP,2013-01-12 22:59:00,
2013-01-12 17:01:00,50.0,41.7,29.86,NW,315,10.0,23.0,73,0.00,,,0.78,WUHU21623XXSP,2013-01-12 23:01:00,
2013-01-12 17:03:00,49.8,41.5,29.86,NW,304,10.0,22.0,73,0.00,,,0.78,WUHU21623XXSP,2013-01-12 23:03:00,
2013-01-12 17:04:00,49.8,41.5,29.86,North,0,12.0,22.0,73,0.00,,,0.78,WUHU21623XXSP,2013-01-12 23:04:00,
2013-01-12 17:06:00,49.6,41.6,29.86,NW,315,16.0,17.0,74,0.00,,,0.78,WUHU21623XXSP,2013-01-12 23:06:00,
2013-01-12 17:07:00,49.6,41.6,29.86,NW,309,12.0,16.0,74,0.00,,,0.78,WUHU21623XXSP,2013-01-12 23:07:00,
2013-01-12 17:08:00,49.6,41.6,29.86,NW,306,10.0,16.0,74,0.00,,,0.78,WUHU21623XXSP,2013-01-12 23:08:00,
2013-01-12 17:09:00,49.3,40.9,29.86,North,0,17.0,17.0,73,0.00,,,0.78,WUHU21623XXSP,2013-01-12 23:09:00,
2013-01-12 17:11:00,49.1,41.1,29.86,NNW,331,11.0,23.0,74,0.00,,,0.78,WUHU21623XXSP,2013-01-12 23:11:00,
2013-01-12 17:12:00,49.1,41.1,29.86,NNW,333,11.0,23.0,74,0.00,,,0.78,WUHU21623XXSP,2013-01-12 23:12:00,
2013-01-12 17:13:00,49.1,41.2,29.86,NNW,328,12.0,23.0,74,0.00,,,0.78,WUHU21623XXSP,2013-01-12 23:13:00,
2013-01-12 17:14:00,48.9,40.9,29.86,NNW,337,15.0,23.0,74,0.00,,,0.78,WUHU21623XXSP,2013-01-12 23:14:00,
2013-01-12 17:16:00,48.7,40.7,29.86,WNW,292,10.0,23.0,74,0.00,,,0.78,WUHU21623XXSP,2013-01-12 23:16:00,
2013-01-12 17:17:00,48.7,40.7,29.86,North,0,17.0,23.0,74,0.00,,,0.78,WUHU21623XXSP,2013-01-12 23:17:00,
2013-01-12 17:18:00,48.7,40.7,29.86,NNW,337,12.0,23.0,74,0.00,,,0.78,WUHU21623XXSP,2013-01-12 23:18:00,
2013-01-12 17:19:00,48.6,40.6,29.87,NNW,337,11.0,23.0,74,0.00,,,0.78,WUHU21623XXSP,2013-01-12 23:19:00,
2013-01-12 17:22:00,48.4,40.7,29.87,NW,321,7.0,18.0,75,0.00,,,0.78,WUHU21623XXSP,2013-01-12 23:22:00,
2013-01-12 17:23:00,48.2,40.5,29.87,NNW,332,11.0,18.0,75,0.00,,,0.78,WUHU21623XXSP,2013-01-12 23:23:00,
2013-01-12 17:24:00,48.0,40.4,29.87,NW,315,13.0,18.0,75,0.00,,,0.78,WUHU21623XXSP,2013-01-12 23:24:00,
2013-01-12 17:27:00,48.0,40.4,29.88,NW,320,10.0,18.0,75,0.00,,,0.78,WUHU21623XXSP,2013-01-12 23:27:00,
2013-01-12 17:28:00,47.8,40.2,29.88,NW,315,10.0,18.0,75,0.00,,,0.78,WUHU21623XXSP,2013-01-12 23:28:00,
2013-01-12 17:29:00,47.7,40.1,29.88,NW,311,8.0,18.0,75,0.00,,,0.78,WUHU21623XXSP,2013-01-12 23:29:00,
2013-01-12 17:32:00,47.5,39.9,29.88,NW,314,11.0,16.0,75,0.00,,,0.78,WUHU21623XXSP,2013-01-12 23:32:00,
2013-01-12 17:33:00,47.5,39.9,29.88,NNW,328,10.0,16.0,75,0.00,,,0.78,WUHU21623XXSP,2013-01-12 23:33:00,
2013-01-12 17:34:00,47.3,39.7,29.88,WNW,292,10.0,15.0,75,0.00,,,0.78,WUHU21623XXSP,2013-01-12 23:34:00,
2013-01-12 17:37:00,47.1,39.6,29.88,NNW,337,10.0,13.0,75,0.00,,,0.78,WUHU21623XXSP,2013-01-12 23:37:00,
2013-01-12 17:38:00,47.1,39.6,29.88,NNW,337,12.0,13.0,75,0.00,,,0.78,WUHU21623XXSP,2013-01-12 23:38:00,
2013-01-12 17:39:00,47.1,39.6,29.88,NW,322,8.0,13.0,75,0.00,,,0.78,WUHU21623XXSP,2013-01-12 23:39:00,
2013-01-12 17:42:00,47.1,39.9,29.88,WNW,292,10.0,12.0,76,0.00,,,0.78,WUHU21623XXSP,2013-01-12 23:42:00,
2013-01-12 17:43:00,47.1,39.9,29.89,WNW,300,9.0,13.0,76,0.00,,,0.78,WUHU21623XXSP,2013-01-12 23:43:00,
2013-01-12 17:44:00,46.9,39.8,29.89,NNW,337,10.0,13.0,76,0.00,,,0.78,WUHU21623XXSP,2013-01-12 23:44:00,
2013-01-12 17:47:00,46.9,39.8,29.89,NW,315,11.0,18.0,76,0.00,,,0.78,WUHU21623XXSP,2013-01-12 23:47:00,
2013-01-12 17:48:00,46.8,39.6,29.89,WNW,302,12.0,18.0,76,0.00,,,0.78,WUHU21623XXSP,2013-01-12 23:48:00,
2013-01-12 17:49:00,46.8,39.6,29.89,West,270,12.0,18.0,76,0.00,,,0.78,WUHU21623XXSP,2013-01-12 23:49:00,
2013-01-12 17:52:00,46.6,39.4,29.90,WNW,292,19.0,19.0,76,0.00,,,0.78,WUHU21623XXSP,2013-01-12 23:52:00,
2013-01-12 17:53:00,46.2,39.3,29.90,NW,306,10.0,19.0,76,0.00,,,0.78,WUHU21623XXSP,2013-01-12 23:53:00,
2013-01-12 17:55:00,46.2,39.1,29.90,NW,320,8.0,19.0,76,0.00,,,0.78,WUHU21623XXSP,2013-01-12 23:55:00,
2013-01-12 17:57:00,46.2,39.1,29.91,NW,321,10.0,19.0,76,0.00,,,0.78,WUHU21623XXSP,2013-01-12 23:57:00,
2013-01-12 17:58:00,46.2,39.1,29.91,NNW,337,10.0,19.0,76,0.00,,,0.78,WUHU21623XXSP,2013-01-12 23:58:00,
2013-01-12 18:00:00,46.0,38.9,29.91,NW,304,9.0,19.0,76,0.00,,,0.78,WUHU21623XXSP,2013-01-13 00:00:00,
2013-01-12 18:03:00,46.0,39.3,29.91,NW,315,10.0,15.0,77,0.00,,,0.78,WUHU21623XXSP,2013-01-13 00:03:00,
2013-01-12 18:05:00,46.0,39.3,29.91,NW,308,11.0,20.0,77,0.00,,,0.78,WUHU21623XXSP,2013-01-13 00:05:00,
2013-01-12 18:08:00,45.7,38.9,29.91,WNW,302,11.0,20.0,77,0.00,,,0.78,WUHU21623XXSP,2013-01-13 00:08:00,
2013-01-12 18:09:00,45.7,38.9,29.91,WNW,302,11.0,20.0,77,0.00,,,0.78,WUHU21623XXSP,2013-01-13 00:09:00,
2013-01-12 18:10:00,45.5,38.7,29.91,NW,315,11.0,20.0,77,0.00,,,0.78,WUHU21623XXSP,2013-01-13 00:10:00,
2013-01-12 18:14:00,45.3,38.5,29.92,NW,305,10.0,16.0,77,0.00,,,0.78,WUHU21623XXSP,2013-01-13 00:14:00,
2013-01-12 18:15:00,45.1,38.4,29.92,NW,319,9.0,16.0,77,0.00,,,0.78,WUHU21623XXSP,2013-01-13 00:15:00,
2013-01-12 18:19:00,45.0,38.2,29.93,WNW,302,11.0,17.0,77,0.00,,,0.78,WUHU21623XXSP,2013-01-13 00:19:00,
2013-01-12 18:20:00,45.0,38.2,29.93,WNW,292,9.0,17.0,77,0.00,,,0.78,WUHU21623XXSP,2013-01-13 00:20:00,
2013-01-12 18:24:00,44.8,38.0,29.93,NW,315,10.0,17.0,77,0.00,,,0.78,WUHU21623XXSP,2013-01-13 00:24:00,
2013-01-12 18:26:00,44.6,37.8,29.93,NW,306,11.0,17.0,77,0.00,,,0.78,WUHU21623XXSP,2013-01-13 00:26:00,
2013-01-12 18:29:00,44.4,37.6,29.92,NW,310,9.0,17.0,77,0.00,,,0.78,WUHU21623XXSP,2013-01-13 00:29:00,
2013-01-12 18:31:00,44.4,37.6,29.93,NNW,337,10.0,17.0,77,0.00,,,0.78,WUHU21623XXSP,2013-01-13 00:31:00,
2013-01-12 18:34:00,44.2,37.5,29.94,WNW,292,12.0,17.0,77,0.00,,,0.78,WUHU21623XXSP,2013-01-13 00:34:00,
2013-01-12 18:36:00,44.2,37.5,29.94,NW,325,10.0,17.0,77,0.00,,,0.78,WUHU21623XXSP,2013-01-13 00:36:00,
2013-01-12 18:39:00,43.9,36.8,29.93,North,0,11.0,17.0,76,0.00,,,0.78,WUHU21623XXSP,2013-01-13 00:39:00,
2013-01-12 18:40:00,43.9,36.8,29.94,NNW,340,11.0,17.0,76,0.00,,,0.78,WUHU21623XXSP,2013-01-13 00:40:00,
2013-01-12 18:41:00,43.9,36.8,29.94,NNW,334,10.0,17.0,76,0.00,,,0.78,WUHU21623XXSP,2013-01-13 00:41:00,
2013-01-12 18:44:00,43.7,36.6,29.94,NW,319,9.0,17.0,76,0.00,,,0.78,WUHU21623XXSP,2013-01-13 00:44:00,
2013-01-12 18:45:00,43.5,36.4,29.95,NW,313,9.0,15.0,76,0.00,,,0.78,WUHU21623XXSP,2013-01-13 00:45:00,
2013-01-12 18:46:00,43.5,36.4,29.95,NNW,337,9.0,15.0,76,0.00,,,0.78,WUHU21623XXSP,2013-01-13 00:46:00,
2013-01-12 18:49:00,43.5,36.4,29.94,NW,312,12.0,17.0,76,0.00,,,0.78,WUHU21623XXSP,2013-01-13 00:49:00,
2013-01-12 18:50:00,43.5,36.5,29.94,NW,313,13.0,22.0,76,0.00,,,0.78,WUHU21623XXSP,2013-01-13 00:50:00,
2013-01-12 18:51:00,43.3,36.2,29.94,NNW,337,13.0,22.0,76,0.00,,,0.78,WUHU21623XXSP,2013-01-13 00:51:00,
2013-01-12 18:54:00,43.2,36.1,29.95,NW,304,11.0,22.0,76,0.00,,,0.78,WUHU21623XXSP,2013-01-13 00:54:00,
2013-01-12 18:55:00,43.0,36.0,29.94,WNW,292,12.0,22.0,76,0.00,,,0.78,WUHU21623XXSP,2013-01-13 00:55:00,
2013-01-12 18:56:00,43.0,35.9,29.94,WNW,298,15.0,23.0,76,0.00,,,0.78,WUHU21623XXSP,2013-01-13 00:56:00,
2013-01-12 18:59:00,42.6,35.6,29.95,NNW,337,11.0,23.0,76,0.00,,,0.78,WUHU21623XXSP,2013-01-13 00:59:00,
2013-01-12 19:00:00,42.6,35.6,29.95,NW,313,10.0,23.0,76,0.00,,,0.78,WUHU21623XXSP,2013-01-13 01:00:00,
2013-01-12 19:01:00,42.4,35.4,29.95,West,270,10.0,23.0,76,0.00,,,0.78,WUHU21623XXSP,2013-01-13 01:01:00,
2013-01-12 19:04:00,42.4,35.7,29.95,WNW,292,12.0,23.0,77,0.00,,,0.78,WUHU21623XXSP,2013-01-13 01:04:00,
2013-01-12 19:05:00,42.3,35.5,29.95,NW,315,10.0,23.0,77,0.00,,,0.78,WUHU21623XXSP,2013-01-13 01:05:00,
2013-01-12 19:06:00,42.1,35.3,29.95,NW,314,9.0,16.0,77,0.00,,,0.78,WUHU21623XXSP,2013-01-13 01:06:00,
2013-01-12 19:09:00,42.1,35.0,29.96,NNW,337,13.0,18.0,76,0.00,,,0.78,WUHU21623XXSP,2013-01-13 01:09:00,
2013-01-12 19:10:00,41.9,34.8,29.96,NNW,337,11.0,18.0,76,0.00,,,0.78,WUHU21623XXSP,2013-01-13 01:10:00,
2013-01-12 19:12:00,41.9,34.8,29.96,NW,311,10.0,18.0,76,0.00,,,0.78,WUHU21623XXSP,2013-01-13 01:12:00,
2013-01-12 19:14:00,41.7,34.7,29.96,West,270,10.0,18.0,76,0.00,,,0.78,WUHU21623XXSP,2013-01-13 01:14:00,
2013-01-12 19:15:00,41.7,34.7,29.96,WNW,292,18.0,18.0,76,0.00,,,0.78,WUHU21623XXSP,2013-01-13 01:15:00,
2013-01-12 19:17:00,41.5,34.5,29.96,WSW,247,16.0,18.0,76,0.00,,,0.78,WUHU21623XXSP,2013-01-13 01:17:00,
2013-01-12 19:20:00,41.5,34.2,29.96,NW,315,13.0,18.0,75,0.00,,,0.78,WUHU21623XXSP,2013-01-13 01:20:00,
2013-01-12 19:22:00,41.2,33.8,29.96,NW,315,12.0,18.0,75,0.00,,,0.78,WUHU21623XXSP,2013-01-13 01:22:00,
2013-01-12 19:25:00,41.2,34.1,29.96,North,0,13.0,17.0,76,0.00,,,0.78,WUHU21623XXSP,2013-01-13 01:25:00,
2013-01-12 19:27:00,41.2,34.3,29.96,NW,316,11.0,16.0,76,0.00,,,0.78,WUHU21623XXSP,2013-01-13 01:27:00,
2013-01-12 19:30:00,41.2,34.1,29.95,WNW,292,11.0,19.0,76,0.00,,,0.78,WUHU21623XXSP,2013-01-13 01:30:00,
2013-01-12 19:33:00,41.0,33.9,29.95,NW,309,10.0,19.0,76,0.00,,,0.78,WUHU21623XXSP,2013-01-13 01:33:00,
2013-01-12 19:35:00,40.8,33.8,29.95,NW,310,10.0,21.0,76,0.00,,,0.78,WUHU21623XXSP,2013-01-13 01:35:00,
2013-01-12 19:38:00,40.8,33.8,29.96,NW,308,10.0,21.0,76,0.00,,,0.78,WUHU21623XXSP,2013-01-13 01:38:00,
2013-01-12 19:40:00,40.8,33.8,29.97,NW,315,10.0,21.0,76,0.00,,,0.78,WUHU21623XXSP,2013-01-13 01:40:00,
2013-01-12 19:43:00,40.8,33.8,29.99,WNW,303,10.0,17.0,76,0.00,,,0.78,WUHU21623XXSP,2013-01-13 01:43:00,
2013-01-12 19:45:00,40.6,33.6,29.97,WNW,292,11.0,17.0,76,0.00,,,0.78,WUHU21623XXSP,2013-01-13 01:45:00,
2013-01-12 19:46:00,40.6,33.6,29.96,NW,307,10.0,17.0,76,0.00,,,0.78,WUHU21623XXSP,2013-01-13 01:46:00,
2013-01-12 19:48:00,40.6,33.9,29.97,NW,314,10.0,17.0,77,0.00,,,0.78,WUHU21623XXSP,2013-01-13 01:48:00,
2013-01-12 19:50:00,40.5,33.4,29.97,WNW,292,10.0,17.0,76,0.00,,,0.78,WUHU21623XXSP,2013-01-13 01:50:00,
2013-01-12 19:51:00,40.5,33.4,29.97,NW,315,10.0,17.0,76,0.00,,,0.78,WUHU21623XXSP,2013-01-13 01:51:00,
2013-01-12 19:53:00,40.3,33.6,29.97,West,270,6.0,14.0,77,0.00,,,0.78,WUHU21623XXSP,2013-01-13 01:53:00,
2013-01-12 19:55:00,40.3,33.9,29.96,WNW,292,8.0,14.0,78,0.00,,,0.78,WUHU21623XXSP,2013-01-13 01:55:00,
2013-01-12 19:56:00,40.3,33.9,29.96,NW,307,7.0,14.0,78,0.00,,,0.78,WUHU21623XXSP,2013-01-13 01:56:00,
2013-01-12 19:59:00,40.1,33.8,29.96,NW,307,9.0,11.0,78,0.00,,,0.78,WUHU21623XXSP,2013-01-13 01:59:00,
2013-01-12 20:00:00,40.1,33.8,29.96,North,0,13.0,13.0,78,0.00,,,0.78,WUHU21623XXSP,2013-01-13 02:00:00,
2013-01-12 20:01:00,40.1,33.8,29.96,NNW,327,7.0,13.0,78,0.00,,,0.78,WUHU21623XXSP,2013-01-13 02:01:00,
2013-01-12 20:04:00,39.9,33.6,29.96,WNW,292,9.0,13.0,78,0.00,,,0.78,WUHU21623XXSP,2013-01-13 02:04:00,
2013-01-12 20:05:00,39.9,33.3,29.96,NW,317,9.0,13.0,77,0.00,,,0.78,WUHU21623XXSP,2013-01-13 02:05:00,
2013-01-12 20:06:00,39.9,33.3,29.96,NNW,327,9.0,13.0,77,0.00,,,0.78,WUHU21623XXSP,2013-01-13 02:06:00,
2013-01-12 20:09:00,39.7,33.4,29.96,NW,316,9.0,13.0,78,0.00,,,0.78,WUHU21623XXSP,2013-01-13 02:09:00,
2013-01-12 20:11:00,39.7,33.4,29.96,West,270,9.0,12.0,78,0.00,,,0.78,WUHU21623XXSP,2013-01-13 02:11:00,
2013-01-12 20:12:00,39.6,33.3,29.96,NW,315,10.0,17.0,78,0.00,,,0.78,WUHU21623XXSP,2013-01-13 02:12:00,
2013-01-12 20:14:00,39.6,32.9,29.97,NW,304,10.0,17.0,77,0.00,,,0.78,WUHU21623XXSP,2013-01-13 02:14:00,
2013-01-12 20:16:00,39.4,32.8,29.97,NW,319,10.0,17.0,77,0.00,,,0.78,WUHU21623XXSP,2013-01-13 02:16:00,
2013-01-12 20:17:00,39.4,32.8,29.97,NW,320,8.0,17.0,77,0.00,,,0.78,WUHU21623XXSP,2013-01-13 02:17:00,
2013-01-12 20:19:00,39.4,33.1,29.97,WNW,292,11.0,17.0,78,0.00,,,0.78,WUHU21623XXSP,2013-01-13 02:19:00,
2013-01-12 20:21:00,39.4,33.1,29.96,West,270,12.0,17.0,78,0.00,,,0.78,WUHU21623XXSP,2013-01-13 02:21:00,
2013-01-12 20:23:00,39.4,33.1,29.96,North,0,10.0,15.0,78,0.00,,,0.78,WUHU21623XXSP,2013-01-13 02:23:00,
2013-01-12 20:24:00,39.4,33.1,29.96,NW,321,9.0,15.0,78,0.00,,,0.78,WUHU21623XXSP,2013-01-13 02:24:00,
2013-01-12 20:26:00,39.0,32.8,29.97,WNW,292,11.0,15.0,78,0.00,,,0.78,WUHU21623XXSP,2013-01-13 02:26:00,
2013-01-12 20:28:00,39.0,32.8,29.97,NW,315,9.0,15.0,78,0.00,,,0.78,WUHU21623XXSP,2013-01-13 02:28:00,
2013-01-12 20:29:00,39.0,32.8,29.97,North,0,10.0,13.0,78,0.00,,,0.78,WUHU21623XXSP,2013-01-13 02:29:00,
2013-01-12 20:31:00,39.0,32.8,29.97,NW,311,7.0,13.0,78,0.00,,,0.78,WUHU21623XXSP,2013-01-13 02:31:00,
2013-01-12 20:32:00,39.0,32.8,29.97,NW,321,6.0,13.0,78,0.00,,,0.78,WUHU21623XXSP,2013-01-13 02:32:00,
2013-01-12 20:33:00,39.0,32.8,29.97,NNW,336,5.0,13.0,78,0.00,,,0.78,WUHU21623XXSP,2013-01-13 02:33:00,
2013-01-12 20:35:00,39.0,32.8,29.97,WNW,292,10.0,15.0,78,0.00,,,0.78,WUHU21623XXSP,2013-01-13 02:35:00,
2013-01-12 20:36:00,39.0,32.8,29.97,NW,315,12.0,19.0,78,0.00,,,0.78,WUHU21623XXSP,2013-01-13 02:36:00,
2013-01-12 20:37:00,39.0,32.4,29.97,NNW,333,10.0,19.0,77,0.00,,,0.78,WUHU21623XXSP,2013-01-13 02:37:00,
2013-01-12 20:38:00,39.0,32.4,29.97,NW,326,11.0,19.0,77,0.00,,,0.78,WUHU21623XXSP,2013-01-13 02:38:00,
2013-01-12 20:40:00,39.0,32.4,29.96,NW,312,10.0,19.0,77,0.00,,,0.78,WUHU21623XXSP,2013-01-13 02:40:00,
2013-01-12 20:41:00,39.0,32.4,29.96,NW,317,11.0,19.0,77,0.00,,,0.78,WUHU21623XXSP,2013-01-13 02:41:00,
2013-01-12 20:42:00,39.0,32.4,29.96,WNW,292,11.0,19.0,77,0.00,,,0.78,WUHU21623XXSP,2013-01-13 02:42:00,
2013-01-12 20:43:00,39.0,32.4,29.96,NW,322,10.0,19.0,77,0.00,,,0.78,WUHU21623XXSP,2013-01-13 02:43:00,
2013-01-12 20:45:00,39.0,32.4,29.97,NNW,337,10.0,19.0,77,0.00,,,0.78,WUHU21623XXSP,2013-01-13 02:45:00,
2013-01-12 20:46:00,38.8,32.2,29.97,NW,320,11.0,18.0,77,0.00,,,0.78,WUHU21623XXSP,2013-01-13 02:46:00,
2013-01-12 20:47:00,38.8,32.2,29.98,NW,321,12.0,18.0,77,0.00,,,0.78,WUHU21623XXSP,2013-01-13 02:47:00,
2013-01-12 20:48:00,38.8,32.2,29.98,NW,322,10.0,18.0,77,0.00,,,0.78,WUHU21623XXSP,2013-01-13 02:48:00,
2013-01-12 20:50:00,38.8,32.2,29.98,NW,323,8.0,18.0,77,0.00,,,0.78,WUHU21623XXSP,2013-01-13 02:50:00,
2013-01-12 20:51:00,38.8,32.2,29.98,NNW,337,10.0,18.0,77,0.00,,,0.78,WUHU21623XXSP,2013-01-13 02:51:00,
2013-01-12 20:52:00,38.8,32.2,29.98,NW,315,11.0,18.0,77,0.00,,,0.78,WUHU21623XXSP,2013-01-13 02:52:00,
2013-01-12 20:53:00,38.8,32.2,29.97,NW,316,9.0,18.0,77,0.00,,,0.78,WUHU21623XXSP,2013-01-13 02:53:00,
2013-01-12 20:55:00,38.8,32.2,29.97,NW,305,8.0,18.0,77,0.00,,,0.78,WUHU21623XXSP,2013-01-13 02:55:00,
2013-01-12 20:56:00,38.8,32.2,29.97,NNW,327,8.0,14.0,77,0.00,,,0.78,WUHU21623XXSP,2013-01-13 02:56:00,
2013-01-12 20:57:00,38.8,32.2,29.97,NW,315,11.0,14.0,77,0.00,,,0.78,WUHU21623XXSP,2013-01-13 02:57:00,
2013-01-12 20:58:00,38.8,32.2,29.98,NNW,328,9.0,14.0,77,0.00,,,0.78,WUHU21623XXSP,2013-01-13 02:58:00,
2013-01-12 21:00:00,38.8,32.2,29.98,NW,313,8.0,12.0,77,0.00,,,0.78,WUHU21623XXSP,2013-01-13 03:00:00,
2013-01-12 21:02:00,38.8,32.2,29.98,WNW,303,7.0,12.0,77,0.00,,,0.78,WUHU21623XXSP,2013-01-13 03:02:00,
2013-01-12 21:04:00,38.8,32.2,29.98,NW,315,9.0,11.0,77,0.00,,,0.78,WUHU21623XXSP,2013-01-13 03:04:00,
2013-01-12 21:06:00,38.8,32.2,29.98,NNW,329,7.0,11.0,77,0.00,,,0.78,WUHU21623XXSP,2013-01-13 03:06:00,
2013-01-12 21:07:00,38.8,32.2,29.98,NNW,337,10.0,12.0,77,0.00,,,0.78,WUHU21623XXSP,2013-01-13 03:07:00,
2013-01-12 21:09:00,38.8,32.2,29.98,NW,306,9.0,12.0,77,0.00,,,0.78,WUHU21623XXSP,2013-01-13 03:09:00,
2013-01-12 21:11:00,38.8,32.2,29.98,NW,315,12.0,12.0,77,0.00,,,0.78,WUHU21623XXSP,2013-01-13 03:11:00,
2013-01-12 21:12:00,38.8,32.2,29.98,NW,315,13.0,13.0,77,0.00,,,0.78,WUHU21623XXSP,2013-01-13 03:12:00,
2013-01-12 21:14:00,38.8,32.2,29.98,WNW,301,10.0,13.0,77,0.00,,,0.78,WUHU21623XXSP,2013-01-13 03:14:00,
2013-01-12 21:16:00,38.5,31.9,29.98,NW,315,13.0,13.0,77,0.00,,,0.78,WUHU21623XXSP,2013-01-13 03:16:00,
2013-01-12 21:18:00,38.5,31.9,29.98,NW,322,11.0,17.0,77,0.00,,,0.78,WUHU21623XXSP,2013-01-13 03:18:00,
2013-01-12 21:19:00,38.5,31.9,29.98,WNW,292,11.0,17.0,77,0.00,,,0.78,WUHU21623XXSP,2013-01-13 03:19:00,
2013-01-12 21:21:00,38.5,31.9,29.98,NW,315,11.0,17.0,77,0.00,,,0.78,WUHU21623XXSP,2013-01-13 03:21:00,
2013-01-12 21:23:00,38.5,31.9,29.98,NW,315,10.0,17.0,77,0.00,,,0.78,WUHU21623XXSP,2013-01-13 03:23:00,
2013-01-12 21:24:00,38.5,31.9,29.98,North,0,12.0,21.0,77,0.00,,,0.78,WUHU21623XXSP,2013-01-13 03:24:00,
2013-01-12 21:26:00,38.5,31.9,29.98,NNW,337,13.0,21.0,77,0.00,,,0.78,WUHU21623XXSP,2013-01-13 03:26:00,
2013-01-12 21:28:00,38.3,31.8,29.98,NW,319,10.0,21.0,77,0.00,,,0.78,WUHU21623XXSP,2013-01-13 03:28:00,
2013-01-12 21:29:00,38.5,31.9,29.98,NW,315,12.0,21.0,77,0.00,,,0.78,WUHU21623XXSP,2013-01-13 03:29:00,
2013-01-12 21:31:00,38.3,31.7,29.99,NW,313,8.0,21.0,77,0.00,,,0.78,WUHU21623XXSP,2013-01-13 03:31:00,
2013-01-12 21:33:00,38.3,31.7,29.99,WNW,296,9.0,21.0,77,0.00,,,0.78,WUHU21623XXSP,2013-01-13 03:33:00,
2013-01-12 21:34:00,38.5,31.9,29.99,WNW,292,8.0,13.0,77,0.00,,,0.78,WUHU21623XXSP,2013-01-13 03:34:00,
2013-01-12 21:36:00,38.5,31.9,29.99,NW,307,6.0,12.0,77,0.00,,,0.78,WUHU21623XXSP,2013-01-13 03:36:00,
2013-01-12 21:38:00,38.3,31.7,29.99,NW,318,10.0,16.0,77,0.00,,,0.78,WUHU21623XXSP,2013-01-13 03:38:00,
2013-01-12 21:39:00,38.3,31.8,29.99,NW,325,11.0,16.0,77,0.00,,,0.78,WUHU21623XXSP,2013-01-13 03:39:00,
2013-01-12 21:41:00,38.3,31.7,29.99,NW,315,10.0,16.0,77,0.00,,,0.78,WUHU21623XXSP,2013-01-13 03:41:00,
2013-01-12 21:43:00,38.3,31.7,29.98,NW,319,10.0,16.0,77,0.00,,,0.78,WUHU21623XXSP,2013-01-13 03:43:00,
2013-01-12 21:44:00,38.3,31.7,29.99,NW,316,8.0,16.0,77,0.00,,,0.78,WUHU21623XXSP,2013-01-13 03:44:00,
2013-01-12 21:46:00,38.3,31.7,29.99,NNW,337,13.0,16.0,77,0.00,,,0.78,WUHU21623XXSP,2013-01-13 03:46:00,
2013-01-12 21:48:00,38.3,31.7,29.99,NNW,330,10.0,15.0,77,0.00,,,0.78,WUHU21623XXSP,2013-01-13 03:48:00,
2013-01-12 21:49:00,38.3,31.7,29.99,NNW,331,9.0,15.0,77,0.00,,,0.78,WUHU21623XXSP,2013-01-13 03:49:00,
2013-01-12 21:50:00,38.3,31.7,29.99,NW,315,7.0,13.0,77,0.00,,,0.78,WUHU21623XXSP,2013-01-13 03:50:00,
2013-01-12 21:51:00,38.3,31.7,29.99,WNW,292,8.0,13.0,77,0.00,,,0.78,WUHU21623XXSP,2013-01-13 03:51:00,
2013-01-12 21:53:00,38.3,31.7,29.99,NNW,327,9.0,14.0,77,0.00,,,0.78,WUHU21623XXSP,2013-01-13 03:53:00,
2013-01-12 21:54:00,38.3,31.7,29.99,NNW,337,10.0,14.0,77,0.00,,,0.78,WUHU21623XXSP,2013-01-13 03:54:00,
2013-01-12 21:55:00,38.3,31.7,29.99,NNW,331,8.0,14.0,77,0.00,,,0.78,WUHU21623XXSP,2013-01-13 03:55:00,
2013-01-12 21:56:00,38.3,31.7,30.00,NNW,337,8.0,14.0,77,0.00,,,0.78,WUHU21623XXSP,2013-01-13 03:56:00,
2013-01-12 21:59:00,38.3,31.7,30.00,WNW,299,8.0,14.0,77,0.00,,,0.78,WUHU21623XXSP,2013-01-13 03:59:00,
2013-01-12 22:00:00,38.3,31.7,30.01,WNW,303,9.0,14.0,77,0.00,,,0.78,WUHU21623XXSP,2013-01-13 04:00:00,
2013-01-12 22:01:00,38.3,31.7,30.01,NW,320,9.0,14.0,77,0.00,,,0.78,WUHU21623XXSP,2013-01-13 04:01:00,
2013-01-12 22:04:00,38.3,31.7,30.00,WNW,292,15.0,15.0,77,0.00,,,0.78,WUHU21623XXSP,2013-01-13 04:04:00,
2013-01-12 22:06:00,38.3,31.7,30.01,NW,321,10.0,15.0,77,0.00,,,0.78,WUHU21623XXSP,2013-01-13 04:06:00,
2013-01-12 22:07:00,38.3,31.7,30.01,WNW,292,10.0,15.0,77,0.00,,,0.78,WUHU21623XXSP,2013-01-13 04:07:00,
2013-01-12 22:09:00,38.3,31.7,30.00,NNW,337,11.0,18.0,77,0.00,,,0.78,WUHU21623XXSP,2013-01-13 04:09:00,
2013-01-12 22:11:00,38.3,31.7,30.00,NNW,338,8.0,18.0,77,0.00,,,0.78,WUHU21623XXSP,2013-01-13 04:11:00,
2013-01-12 22:12:00,38.3,31.7,30.00,NNW,339,7.0,18.0,77,0.00,,,0.78,WUHU21623XXSP,2013-01-13 04:12:00,
2013-01-12 22:14:00,38.3,31.7,30.00,NW,315,8.0,18.0,77,0.00,,,0.78,WUHU21623XXSP,2013-01-13 04:14:00,
2013-01-12 22:16:00,38.5,31.9,30.00,NW,315,10.0,18.0,77,0.00,,,0.78,WUHU21623XXSP,2013-01-13 04:16:00,
2013-01-12 22:17:00,38.3,31.7,30.01,West,270,6.0,18.0,77,0.00,,,0.78,WUHU21623XXSP,2013-01-13 04:17:00,
2013-01-12 22:19:00,38.5,31.9,30.00,NNW,337,10.0,11.0,77,0.00,,,0.78,WUHU21623XXSP,2013-01-13 04:19:00,
2013-01-12 22:20:00,38.5,31.9,30.00,NNW,337,10.0,11.0,77,0.00,,,0.78,WUHU21623XXSP,2013-01-13 04:20:00,
2013-01-12 22:21:00,38.5,31.9,30.00,NNW,335,9.0,12.0,77,0.00,,,0.78,WUHU21623XXSP,2013-01-13 04:21:00,
2013-01-12 22:22:00,38.5,31.9,30.00,NW,315,10.0,12.0,77,0.00,,,0.78,WUHU21623XXSP,2013-01-13 04:22:00,
2013-01-12 22:25:00,38.5,31.9,30.01,NW,317,7.0,12.0,77,0.00,,,0.78,WUHU21623XXSP,2013-01-13 04:25:00,
2013-01-12 22:26:00,38.5,31.9,30.01,NW,326,6.0,12.0,77,0.00,,,0.78,WUHU21623XXSP,2013-01-13 04:26:00,
2013-01-12 22:27:00,38.5,31.9,30.00,NW,315,9.0,17.0,77,0.00,,,0.78,WUHU21623XXSP,2013-01-13 04:27:00,
2013-01-12 22:30:00,38.5,31.9,30.00,NNW,338,11.0,17.0,77,0.00,,,0.78,WUHU21623XXSP,2013-01-13 04:30:00,
2013-01-12 22:31:00,38.5,31.9,30.00,NW,325,8.0,17.0,77,0.00,,,0.78,WUHU21623XXSP,2013-01-13 04:31:00,
2013-01-12 22:32:00,38.5,31.9,29.99,NW,311,7.0,17.0,77,0.00,,,0.78,WUHU21623XXSP,2013-01-13 04:32:00,
2013-01-12 22:35:00,38.7,31.7,29.99,NNW,331,8.0,17.0,76,0.00,,,0.78,WUHU21623XXSP,2013-01-13 04:35:00,
2013-01-12 22:37:00,38.8,31.9,29.99,NW,315,8.0,13.0,76,0.00,,,0.78,WUHU21623XXSP,2013-01-13 04:37:00,
2013-01-12 22:40:00,38.8,31.9,30.00,NW,310,9.0,13.0,76,0.00,,,0.78,WUHU21623XXSP,2013-01-13 04:40:00,
2013-01-12 22:42:00,38.8,31.9,30.00,NW,318,6.0,13.0,76,0.00,,,0.78,WUHU21623XXSP,2013-01-13 04:42:00,
2013-01-12 22:43:00,38.8,31.9,30.00,NW,315,9.0,13.0,76,0.00,,,0.78,WUHU21623XXSP,2013-01-13 04:43:00,
2013-01-12 22:45:00,38.8,31.9,30.01,WNW,292,12.0,13.0,76,0.00,,,0.78,WUHU21623XXSP,2013-01-13 04:45:00,
2013-01-12 22:48:00,38.8,31.9,30.01,NW,315,9.0,13.0,76,0.00,,,0.78,WUHU21623XXSP,2013-01-13 04:48:00,
2013-01-12 22:50:00,38.8,31.9,30.01,NW,318,10.0,15.0,76,0.00,,,0.78,WUHU21623XXSP,2013-01-13 04:50:00,
2013-01-12 22:53:00,38.8,31.9,30.01,NW,315,13.0,15.0,76,0.00,,,0.78,WUHU21623XXSP,2013-01-13 04:53:00,
2013-01-12 22:55:00,38.8,31.9,30.01,NNW,331,8.0,15.0,76,0.00,,,0.78,WUHU21623XXSP,2013-01-13 04:55:00,
2013-01-12 22:58:00,38.8,31.9,30.02,NW,326,8.0,15.0,76,0.00,,,0.78,WUHU21623XXSP,2013-01-13 04:58:00,
2013-01-12 23:00:00,38.8,31.9,30.02,WNW,292,7.0,13.0,76,0.00,,,0.78,WUHU21623XXSP,2013-01-13 05:00:00,
2013-01-12 23:02:00,38.8,31.9,30.02,NW,315,7.0,13.0,76,0.00,,,0.78,WUHU21623XXSP,2013-01-13 05:02:00,
2013-01-12 23:03:00,38.8,31.9,30.01,North,0,13.0,13.0,76,0.00,,,0.78,WUHU21623XXSP,2013-01-13 05:03:00,
2013-01-12 23:05:00,38.8,31.9,30.01,NW,319,10.0,13.0,76,0.00,,,0.78,WUHU21623XXSP,2013-01-13 05:05:00,
2013-01-12 23:07:00,38.8,31.9,30.01,NW,315,13.0,13.0,76,0.00,,,0.78,WUHU21623XXSP,2013-01-13 05:07:00,
2013-01-12 23:08:00,38.8,31.9,30.01,NE,45,9.0,13.0,76,0.00,,,0.78,WUHU21623XXSP,2013-01-13 05:08:00,
2013-01-12 23:10:00,38.8,31.9,30.02,NW,311,8.0,13.0,76,0.00,,,0.78,WUHU21623XXSP,2013-01-13 05:10:00,
2013-01-12 23:13:00,38.8,31.9,30.02,NW,320,9.0,13.0,76,0.00,,,0.78,WUHU21623XXSP,2013-01-13 05:13:00,
2013-01-12 23:16:00,38.8,31.9,30.01,NW,313,5.0,13.0,76,0.00,,,0.78,WUHU21623XXSP,2013-01-13 05:16:00,
2013-01-12 23:18:00,38.8,31.9,30.01,North,0,10.0,12.0,76,0.00,,,0.78,WUHU21623XXSP,2013-01-13 05:18:00,
2013-01-12 23:19:00,38.8,31.9,30.01,NNW,337,12.0,13.0,76,0.00,,,0.78,WUHU21623XXSP,2013-01-13 05:19:00,
2013-01-12 23:21:00,38.8,31.9,30.02,NW,314,9.0,13.0,76,0.00,,,0.78,WUHU21623XXSP,2013-01-13 05:21:00,
2013-01-12 23:23:00,38.8,31.6,30.02,NNW,337,12.0,15.0,75,0.00,,,0.78,WUHU21623XXSP,2013-01-13 05:23:00,
2013-01-12 23:24:00,38.8,31.6,30.02,NW,324,10.0,15.0,75,0.00,,,0.78,WUHU21623XXSP,2013-01-13 05:24:00,
2013-01-12 23:26:00,38.8,31.6,30.02,NNW,332,7.0,15.0,75,0.00,,,0.78,WUHU21623XXSP,2013-01-13 05:26:00,
2013-01-12 23:28:00,38.7,31.4,30.02,NW,315,9.0,15.0,75,0.00,,,0.78,WUHU21623XXSP,2013-01-13 05:28:00,
2013-01-12 23:29:00,38.7,31.4,30.02,NW,315,8.0,15.0,75,0.00,,,0.78,WUHU21623XXSP,2013-01-13 05:29:00,
2013-01-12 23:31:00,38.7,31.4,30.02,North,0,9.0,15.0,75,0.00,,,0.78,WUHU21623XXSP,2013-01-13 05:31:00,
2013-01-12 23:33:00,38.8,31.6,30.02,NW,315,10.0,12.0,75,0.00,,,0.78,WUHU21623XXSP,2013-01-13 05:33:00,
2013-01-12 23:34:00,38.7,31.4,30.02,NW,313,8.0,12.0,75,0.00,,,0.78,WUHU21623XXSP,2013-01-13 05:34:00,
2013-01-12 23:36:00,38.7,31.4,30.02,WNW,292,9.0,12.0,75,0.00,,,0.78,WUHU21623XXSP,2013-01-13 05:36:00,
2013-01-12 23:38:00,38.7,31.4,30.02,NW,316,7.0,12.0,75,0.00,,,0.78,WUHU21623XXSP,2013-01-13 05:38:00,
2013-01-12 23:39:00,38.5,31.2,30.02,WNW,292,7.0,12.0,75,0.00,,,0.78,WUHU21623XXSP,2013-01-13 05:39:00,
2013-01-12 23:41:00,38.7,31.4,30.02,NNW,337,9.0,11.0,75,0.00,,,0.78,WUHU21623XXSP,2013-01-13 05:41:00,
2013-01-12 23:43:00,38.5,31.2,30.02,NNW,337,8.0,11.0,75,0.00,,,0.78,WUHU21623XXSP,2013-01-13 05:43:00,
2013-01-12 23:44:00,38.5,31.2,30.01,WNW,292,10.0,11.0,75,0.00,,,0.78,WUHU21623XXSP,2013-01-13 05:44:00,
2013-01-12 23:46:00,38.5,31.2,30.01,WNW,303,9.0,13.0,75,0.00,,,0.78,WUHU21623XXSP,2013-01-13 05:46:00,
2013-01-12 23:48:00,38.5,31.2,30.02,NNW,337,13.0,13.0,75,0.00,,,0.78,WUHU21623XXSP,2013-01-13 05:48:00,
2013-01-12 23:49:00,38.5,31.2,30.02,NNW,329,9.0,14.0,75,0.00,,,0.78,WUHU21623XXSP,2013-01-13 05:49:00,
2013-01-12 23:51:00,38.5,31.2,30.02,NW,306,8.0,14.0,75,0.00,,,0.78,WUHU21623XXSP,2013-01-13 05:51:00,
2013-01-12 23:53:00,38.3,31.1,30.02,WNW,303,9.0,14.0,75,0.00,,,0.78,WUHU21623XXSP,2013-01-13 05:53:00,
2013-01-12 23:54:00,38.3,31.0,30.02,WNW,292,11.0,14.0,75,0.00,,,0.78,WUHU21623XXSP,2013-01-13 05:54:00,
2013-01-12 23:56:00,38.3,31.0,30.02,WNW,292,10.0,14.0,75,0.00,,,0.78,WUHU21623XXSP,2013-01-13 05:56:00,
2013-01-12 23:58:00,38.1,30.9,30.01,NW,315,13.0,13.0,75,0.00,,,0.78,WUHU21623XXSP,2013-01-13 05:58:00,
2013-01-12 23:59:00,38.1,30.9,30.01,NW,315,11.0,13.0,75,0.00,,,0.78,WUHU21623XXSP,2013-01-13 05:59:00,